| time (UTC) | temp F | wind direction | speed MPH | gust MPH | rain 1hr in | rain 24hr in | rain mn in | humidity % | barometer mb |
| 20260906224406 | 98 | 119 | 5.0 | 12.0 | 0.00 | 0.00 | 0.00 | 37 | 941.8 |
| 20260906224306 | 98 | 159 | 5.0 | 12.0 | 0.00 | 0.00 | 0.00 | 39 | 941.8 |
| 20260906224201 | 98 | 173 | 5.0 | 12.0 | 0.00 | 0.00 | 0.00 | 38 | 941.8 |
| 20260906224101 | 98 | 154 | 5.0 | 12.0 | 0.00 | 0.00 | 0.00 | 38 | 941.9 |
| 20260906224001 | 98 | 153 | 5.0 | 12.0 | 0.00 | 0.00 | 0.00 | 37 | 941.8 |
| 20260906223900 | 98 | 136 | 5.0 | 12.0 | 0.00 | 0.00 | 0.00 | 38 | 941.8 |
| 20260906223800 | 98 | 176 | 5.0 | 12.0 | 0.00 | 0.00 | 0.00 | 38 | 941.8 |
| 20260906223708 | 98 | 157 | 6.0 | 12.0 | 0.00 | 0.00 | 0.00 | 37 | 941.8 |
| 20260906223556 | 98 | 119 | 6.0 | 12.0 | 0.00 | 0.00 | 0.00 | 39 | 941.9 |
| 20260906223456 | 98 | 132 | 6.0 | 12.0 | 0.00 | 0.00 | 0.00 | 37 | 941.9 |
| 20260906223442 | 98 | 126 | 6.0 | 12.0 | 0.00 | 0.00 | 0.00 | 38 | 941.9 |
| 20260906223254 | 98 | 123 | 6.0 | 12.0 | 0.00 | 0.00 | 0.00 | 38 | 941.9 |
| 20260906223150 | 98 | 182 | 7.0 | 12.0 | 0.00 | 0.00 | 0.00 | 38 | 941.9 |
| 20260906223048 | 98 | 148 | 7.0 | 14.0 | 0.00 | 0.00 | 0.00 | 37 | 941.9 |
| 20260906222948 | 98 | 151 | 7.0 | 14.0 | 0.00 | 0.00 | 0.00 | 37 | 941.9 |
| 20260906222848 | 98 | 127 | 7.0 | 14.0 | 0.00 | 0.00 | 0.00 | 37 | 942.0 |
| 20260906222748 | 98 | 128 | 7.0 | 14.0 | 0.00 | 0.00 | 0.00 | 37 | 941.9 |
| 20260906222705 | 98 | 140 | 7.0 | 14.0 | 0.00 | 0.00 | 0.00 | 37 | 942.0 |
| 20260906222542 | 98 | 155 | 7.0 | 14.0 | 0.00 | 0.00 | 0.00 | 37 | 942.0 |
| 20260906222448 | 98 | 159 | 7.0 | 14.0 | 0.00 | 0.00 | 0.00 | 37 | 942.0 |
| 20260906222442 | 98 | 121 | 7.0 | 14.0 | 0.00 | 0.00 | 0.00 | 37 | 941.9 |
| 20260906222242 | 98 | 128 | 7.0 | 14.0 | 0.00 | 0.00 | 0.00 | 36 | 942.0 |
| 20260906222136 | 99 | 138 | 7.0 | 14.0 | 0.00 | 0.00 | 0.00 | 36 | 942.0 |
| 20260906222036 | 99 | 93 | 6.0 | 14.0 | 0.00 | 0.00 | 0.00 | 36 | 942.0 |
| 20260906221936 | 99 | 128 | 5.0 | 14.0 | 0.00 | 0.00 | 0.00 | 36 | 942.0 |
| 20260906221836 | 99 | 124 | 5.0 | 14.0 | 0.00 | 0.00 | 0.00 | 37 | 942.1 |
| 20260906221736 | 99 | 148 | 4.0 | 14.0 | 0.00 | 0.00 | 0.00 | 38 | 942.0 |
| 20260906221632 | 99 | 162 | 4.0 | 14.0 | 0.00 | 0.00 | 0.00 | 37 | 942.0 |
| 20260906221532 | 99 | 161 | 3.0 | 13.0 | 0.00 | 0.00 | 0.00 | 37 | 942.1 |
| 20260906221432 | 99 | 119 | 3.0 | 13.0 | 0.00 | 0.00 | 0.00 | 36 | 942.1 |
| 20260906221332 | 99 | 119 | 2.0 | 13.0 | 0.00 | 0.00 | 0.00 | 38 | 942.1 |
| 20260906221232 | 99 | 151 | 2.0 | 13.0 | 0.00 | 0.00 | 0.00 | 37 | 942.1 |
| 20260906221132 | 98 | 100 | 2.0 | 7.0 | 0.00 | 0.00 | 0.00 | 37 | 942.1 |
| 20260906221030 | 98 | 82 | 2.0 | 7.0 | 0.00 | 0.00 | 0.00 | 38 | 942.0 |
| 20260906220930 | 98 | 142 | 2.0 | 7.0 | 0.00 | 0.00 | 0.00 | 40 | 942.1 |
| 20260906220830 | 98 | 184 | 2.0 | 8.0 | 0.00 | 0.00 | 0.00 | 40 | 942.0 |
| 20260906220730 | 98 | 243 | 3.0 | 8.0 | 0.00 | 0.00 | 0.00 | 41 | 942.1 |
| 20260906220630 | 97 | 243 | 3.0 | 10.0 | 0.00 | 0.00 | 0.00 | 38 | 942.1 |
| 20260906220530 | 97 | 166 | 4.0 | 10.0 | 0.00 | 0.00 | 0.00 | 38 | 942.1 |
| 20260906220430 | 97 | 121 | 4.0 | 10.0 | 0.00 | 0.00 | 0.00 | 42 | 942.1 |
| 20260906220331 | 97 | 118 | 4.0 | 10.0 | 0.00 | 0.00 | 0.00 | 38 | 942.1 |
| 20260906220231 | 97 | 148 | 4.0 | 10.0 | 0.00 | 0.00 | 0.00 | 39 | 942.1 |
| 20260906220130 | 96 | 136 | 5.0 | 10.0 | 0.00 | 0.00 | 0.00 | 38 | 942.1 |
| 20260906220030 | 96 | 116 | 5.0 | 10.0 | 0.00 | 0.00 | 0.00 | 38 | 942.1 |
| 20260906215940 | 96 | 155 | 5.0 | 10.0 | 0.00 | 0.00 | 0.00 | 39 | 942.1 |
| 20260906215828 | 96 | 160 | 5.0 | 11.0 | 0.00 | 0.00 | 0.00 | 39 | 942.2 |
| 20260906215728 | 96 | 98 | 5.0 | 11.0 | 0.00 | 0.00 | 0.00 | 39 | 942.1 |
| 20260906215628 | 95 | 142 | 5.0 | 11.0 | 0.00 | 0.00 | 0.00 | 40 | 942.1 |
| 20260906215529 | 95 | 109 | 5.0 | 11.0 | 0.00 | 0.00 | 0.00 | 40 | 942.2 |
| 20260906215429 | 95 | 126 | 5.0 | 11.0 | 0.00 | 0.00 | 0.00 | 41 | 942.2 |
| 20260906215329 | 95 | 133 | 5.0 | 11.0 | 0.00 | 0.00 | 0.00 | 39 | 942.2 |
| 20260906215228 | 95 | 97 | 5.0 | 11.0 | 0.00 | 0.00 | 0.00 | 40 | 942.1 |
| 20260906215128 | 95 | 150 | 6.0 | 11.0 | 0.00 | 0.00 | 0.00 | 40 | 942.2 |
| 20260906215028 | 95 | 134 | 5.0 | 11.0 | 0.00 | 0.00 | 0.00 | 40 | 942.2 |
| 20260906214928 | 95 | 119 | 6.0 | 11.0 | 0.00 | 0.00 | 0.00 | 40 | 942.2 |
| 20260906214828 | 95 | 132 | 6.0 | 11.0 | 0.00 | 0.00 | 0.00 | 41 | 942.2 |
| 20260906214728 | 95 | 126 | 6.0 | 12.0 | 0.00 | 0.00 | 0.00 | 40 | 942.2 |
| 20260906214628 | 95 | 131 | 6.0 | 12.0 | 0.00 | 0.00 | 0.00 | 40 | 942.2 |
| 20260906214524 | 95 | 105 | 7.0 | 12.0 | 0.00 | 0.00 | 0.00 | 40 | 942.3 |
| 20260906214424 | 95 | 120 | 7.0 | 12.0 | 0.00 | 0.00 | 0.00 | 40 | 942.3 |
| 20260906214324 | 95 | 107 | 8.0 | 13.0 | 0.00 | 0.00 | 0.00 | 40 | 942.3 |
| 20260906214224 | 95 | 83 | 8.0 | 13.0 | 0.00 | 0.00 | 0.00 | 40 | 942.3 |
| 20260906214124 | 95 | 92 | 8.0 | 13.0 | 0.00 | 0.00 | 0.00 | 40 | 942.3 |
| 20260906214024 | 95 | 121 | 8.0 | 14.0 | 0.00 | 0.00 | 0.00 | 39 | 942.2 |
| 20260906213924 | 95 | 112 | 8.0 | 14.0 | 0.00 | 0.00 | 0.00 | 40 | 942.2 |
| 20260906213824 | 95 | 106 | 8.0 | 16.0 | 0.00 | 0.00 | 0.00 | 40 | 942.3 |
| 20260906213724 | 95 | 115 | 8.0 | 18.0 | 0.00 | 0.00 | 0.00 | 40 | 942.3 |
| 20260906213624 | 95 | 76 | 8.0 | 18.0 | 0.00 | 0.00 | 0.00 | 39 | 942.2 |
| 20260906213524 | 95 | 98 | 8.0 | 18.0 | 0.00 | 0.00 | 0.00 | 40 | 942.3 |
| 20260906213424 | 95 | 91 | 8.0 | 18.0 | 0.00 | 0.00 | 0.00 | 40 | 942.3 |
| 20260906213324 | 96 | 74 | 7.0 | 18.0 | 0.00 | 0.00 | 0.00 | 39 | 942.3 |
| 20260906213225 | 96 | 65 | 7.0 | 18.0 | 0.00 | 0.00 | 0.00 | 39 | 942.4 |
| 20260906213124 | 96 | 82 | 7.0 | 18.0 | 0.00 | 0.00 | 0.00 | 39 | 942.4 |
| 20260906213025 | 96 | 64 | 7.0 | 18.0 | 0.00 | 0.00 | 0.00 | 38 | 942.4 |
| 20260906212924 | 96 | 137 | 7.0 | 18.0 | 0.00 | 0.00 | 0.00 | 39 | 942.4 |
| 20260906212824 | 96 | 103 | 5.0 | 18.0 | 0.00 | 0.00 | 0.00 | 39 | 942.4 |
| 20260906212724 | 96 | 64 | 5.0 | 11.0 | 0.00 | 0.00 | 0.00 | 39 | 942.4 |
| 20260906212621 | 96 | 71 | 4.0 | 11.0 | 0.00 | 0.00 | 0.00 | 38 | 942.4 |
| 20260906212521 | 96 | 69 | 4.0 | 11.0 | 0.00 | 0.00 | 0.00 | 39 | 942.5 |
| 20260906212420 | 96 | 103 | 4.0 | 11.0 | 0.00 | 0.00 | 0.00 | 38 | 942.4 |
| 20260906212321 | 96 | 117 | 4.0 | 11.0 | 0.00 | 0.00 | 0.00 | 38 | 942.5 |
| 20260906212220 | 96 | 119 | 4.0 | 11.0 | 0.00 | 0.00 | 0.00 | 38 | 942.5 |
| 20260906212120 | 96 | 79 | 4.0 | 11.0 | 0.00 | 0.00 | 0.00 | 37 | 942.5 |
| 20260906212020 | 96 | 119 | 4.0 | 10.0 | 0.00 | 0.00 | 0.00 | 37 | 942.5 |
| 20260906211920 | 97 | 157 | 4.0 | 10.0 | 0.00 | 0.00 | 0.00 | 37 | 942.5 |
| 20260906211820 | 97 | 148 | 4.0 | 10.0 | 0.00 | 0.00 | 0.00 | 37 | 942.5 |
| 20260906211720 | 97 | 171 | 4.0 | 10.0 | 0.00 | 0.00 | 0.00 | 37 | 942.5 |
| 20260906211620 | 97 | 159 | 5.0 | 10.0 | 0.00 | 0.00 | 0.00 | 37 | 942.5 |
| 20260906211520 | 97 | 171 | 5.0 | 10.0 | 0.00 | 0.00 | 0.00 | 38 | 942.5 |
| 20260906211437 | 97 | 171 | 5.0 | 10.0 | 0.00 | 0.00 | 0.00 | 37 | 942.5 |
| 20260906211320 | 97 | 177 | 5.0 | 10.0 | 0.00 | 0.00 | 0.00 | 37 | 942.5 |
| 20260906211220 | 96 | 165 | 5.0 | 10.0 | 0.00 | 0.00 | 0.00 | 38 | 942.5 |
| 20260906211120 | 96 | 238 | 5.0 | 10.0 | 0.00 | 0.00 | 0.00 | 41 | 942.5 |
| 20260906211020 | 96 | 207 | 5.0 | 10.0 | 0.00 | 0.00 | 0.00 | 39 | 942.6 |
| 20260906210933 | 96 | 128 | 5.0 | 10.0 | 0.00 | 0.00 | 0.00 | 40 | 942.6 |
| 20260906210821 | 96 | 142 | 5.0 | 10.0 | 0.00 | 0.00 | 0.00 | 40 | 942.6 |
| 20260906210716 | 96 | 161 | 5.0 | 10.0 | 0.00 | 0.00 | 0.00 | 39 | 942.6 |
| 20260906210617 | 95 | 150 | 5.0 | 10.0 | 0.00 | 0.00 | 0.00 | 39 | 942.6 |
| 20260906210517 | 95 | 174 | 5.0 | 10.0 | 0.00 | 0.00 | 0.00 | 39 | 942.6 |
| 20260906210417 | 95 | 161 | 6.0 | 10.0 | 0.00 | 0.00 | 0.00 | 39 | 942.7 |
| 20260906210316 | 95 | 136 | 6.0 | 10.0 | 0.00 | 0.00 | 0.00 | 39 | 942.7 |
| 20260906210216 | 95 | 127 | 5.0 | 10.0 | 0.00 | 0.00 | 0.00 | 40 | 942.7 |
| 20260906210116 | 95 | 169 | 6.0 | 10.0 | 0.00 | 0.00 | 0.00 | 39 | 942.8 |
| 20260906210016 | 95 | 108 | 6.0 | 10.0 | 0.00 | 0.00 | 0.00 | 40 | 942.7 |
| 20260906205916 | 95 | 134 | 6.0 | 10.0 | 0.00 | 0.00 | 0.00 | 40 | 942.7 |
| 20260906205816 | 95 | 88 | 6.0 | 10.0 | 0.00 | 0.00 | 0.00 | 40 | 942.8 |
| 20260906205716 | 95 | 92 | 6.0 | 10.0 | 0.00 | 0.00 | 0.00 | 39 | 942.9 |
| 20260906205616 | 95 | 80 | 5.0 | 10.0 | 0.00 | 0.00 | 0.00 | 39 | 942.9 |
| 20260906205516 | 95 | 106 | 5.0 | 10.0 | 0.00 | 0.00 | 0.00 | 40 | 942.9 |
| 20260906205416 | 95 | 96 | 5.0 | 10.0 | 0.00 | 0.00 | 0.00 | 40 | 942.9 |
| 20260906205316 | 96 | 101 | 4.0 | 10.0 | 0.00 | 0.00 | 0.00 | 40 | 942.9 |
| 20260906205216 | 96 | 90 | 4.0 | 10.0 | 0.00 | 0.00 | 0.00 | 40 | 942.9 |
| 20260906205116 | 96 | 78 | 4.0 | 10.0 | 0.00 | 0.00 | 0.00 | 39 | 942.9 |
| 20260906205016 | 96 | 92 | 4.0 | 9.0 | 0.00 | 0.00 | 0.00 | 39 | 942.9 |
| 20260906204916 | 96 | 88 | 4.0 | 9.0 | 0.00 | 0.00 | 0.00 | 40 | 942.9 |
| 20260906204812 | 96 | 355 | 4.0 | 9.0 | 0.00 | 0.00 | 0.00 | 39 | 942.9 |
| 20260906204712 | 96 | 44 | 5.0 | 9.0 | 0.00 | 0.00 | 0.00 | 39 | 942.9 |
| 20260906204612 | 96 | 159 | 5.0 | 14.0 | 0.00 | 0.00 | 0.00 | 39 | 942.9 |
| 20260906204512 | 96 | 82 | 5.0 | 14.0 | 0.00 | 0.00 | 0.00 | 38 | 943.0 |
| 20260906204412 | 96 | 147 | 5.0 | 14.0 | 0.00 | 0.00 | 0.00 | 39 | 943.0 |
| 20260906204312 | 96 | 128 | 5.0 | 14.0 | 0.00 | 0.00 | 0.00 | 39 | 943.0 |
| 20260906204213 | 96 | 120 | 5.0 | 14.0 | 0.00 | 0.00 | 0.00 | 38 | 943.0 |
| 20260906204112 | 96 | 126 | 4.0 | 14.0 | 0.00 | 0.00 | 0.00 | 40 | 943.0 |
| 20260906204012 | 96 | 188 | 5.0 | 14.0 | 0.00 | 0.00 | 0.00 | 39 | 943.0 |
| 20260906203912 | 96 | 136 | 5.0 | 14.0 | 0.00 | 0.00 | 0.00 | 39 | 943.0 |
| 20260906203812 | 96 | 105 | 5.0 | 14.0 | 0.00 | 0.00 | 0.00 | 39 | 943.0 |
| 20260906203712 | 96 | 89 | 4.0 | 14.0 | 0.00 | 0.00 | 0.00 | 39 | 943.0 |
| 20260906203612 | 96 | 19 | 3.0 | 11.0 | 0.00 | 0.00 | 0.00 | 40 | 943.0 |
| 20260906203512 | 96 | 5 | 3.0 | 11.0 | 0.00 | 0.00 | 0.00 | 39 | 943.0 |
| 20260906203412 | 96 | 34 | 4.0 | 11.0 | 0.00 | 0.00 | 0.00 | 40 | 943.0 |
| 20260906203312 | 96 | 17 | 4.0 | 11.0 | 0.00 | 0.00 | 0.00 | 38 | 942.9 |
| 20260906203212 | 96 | 340 | 4.0 | 11.0 | 0.00 | 0.00 | 0.00 | 38 | 943.0 |
| 20260906203112 | 96 | 57 | 5.0 | 11.0 | 0.00 | 0.00 | 0.00 | 37 | 943.0 |
| 20260906203012 | 96 | 98 | 4.0 | 11.0 | 0.00 | 0.00 | 0.00 | 39 | 943.0 |
| 20260906202906 | 96 | 82 | 4.0 | 11.0 | 0.00 | 0.00 | 0.00 | 38 | 943.1 |
| 20260906202806 | 96 | 213 | 5.0 | 11.0 | 0.00 | 0.00 | 0.00 | 38 | 943.0 |
| 20260906202706 | 96 | 167 | 5.0 | 11.0 | 0.00 | 0.00 | 0.00 | 39 | 943.0 |
| 20260906202606 | 97 | 125 | 5.0 | 11.0 | 0.00 | 0.00 | 0.00 | 38 | 943.1 |
| 20260906202503 | 97 | 86 | 4.0 | 11.0 | 0.00 | 0.00 | 0.00 | 38 | 943.1 |
| 20260906202426 | 97 | 82 | 4.0 | 11.0 | 0.00 | 0.00 | 0.00 | 40 | 943.1 |
| 20260906202259 | 97 | 69 | 4.0 | 11.0 | 0.00 | 0.00 | 0.00 | 38 | 943.1 |
| 20260906202159 | 98 | 73 | 4.0 | 11.0 | 0.00 | 0.00 | 0.00 | 38 | 943.1 |
| 20260906202058 | 98 | 138 | 4.0 | 11.0 | 0.00 | 0.00 | 0.00 | 38 | 943.1 |
| 20260906201957 | 98 | 173 | 4.0 | 12.0 | 0.00 | 0.00 | 0.00 | 37 | 943.1 |
| 20260906201851 | 98 | 193 | 4.0 | 12.0 | 0.00 | 0.00 | 0.00 | 37 | 943.1 |
| 20260906201751 | 98 | 94 | 4.0 | 12.0 | 0.00 | 0.00 | 0.00 | 37 | 943.1 |
| 20260906201652 | 98 | 94 | 5.0 | 12.0 | 0.00 | 0.00 | 0.00 | 37 | 943.1 |
| 20260906201551 | 98 | 5 | 6.0 | 12.0 | 0.00 | 0.00 | 0.00 | 40 | 943.1 |
| 20260906201451 | 98 | 209 | 6.0 | 12.0 | 0.00 | 0.00 | 0.00 | 37 | 943.1 |
| 20260906201346 | 98 | 200 | 6.0 | 12.0 | 0.00 | 0.00 | 0.00 | 38 | 943.1 |
| 20260906201246 | 98 | 178 | 6.0 | 12.0 | 0.00 | 0.00 | 0.00 | 38 | 943.1 |
| 20260906201146 | 98 | 191 | 6.0 | 12.0 | 0.00 | 0.00 | 0.00 | 37 | 943.1 |
| 20260906201045 | 98 | 166 | 6.0 | 12.0 | 0.00 | 0.00 | 0.00 | 38 | 943.1 |
| 20260906200945 | 98 | 114 | 5.0 | 12.0 | 0.00 | 0.00 | 0.00 | 37 | 943.1 |
| 20260906200840 | 98 | 184 | 5.0 | 12.0 | 0.00 | 0.00 | 0.00 | 37 | 943.2 |
| 20260906200740 | 98 | 154 | 5.0 | 12.0 | 0.00 | 0.00 | 0.00 | 38 | 943.1 |
| 20260906200639 | 98 | 88 | 5.0 | 12.0 | 0.00 | 0.00 | 0.00 | 38 | 943.2 |
| 20260906200539 | 98 | 125 | 5.0 | 12.0 | 0.00 | 0.00 | 0.00 | 39 | 943.2 |
| 20260906200439 | 98 | 159 | 5.0 | 12.0 | 0.00 | 0.00 | 0.00 | 37 | 943.2 |
| 20260906200334 | 98 | 178 | 5.0 | 12.0 | 0.00 | 0.00 | 0.00 | 41 | 943.2 |
| 20260906200234 | 97 | 207 | 5.0 | 12.0 | 0.00 | 0.00 | 0.00 | 40 | 943.2 |
| 20260906200134 | 97 | 45 | 6.0 | 12.0 | 0.00 | 0.00 | 0.00 | 38 | 943.2 |
| 20260906200034 | 97 | 94 | 6.0 | 13.0 | 0.00 | 0.00 | 0.00 | 41 | 943.3 |
| 20260906195933 | 97 | 90 | 6.0 | 13.0 | 0.00 | 0.00 | 0.00 | 41 | 943.4 |
| 20260906195830 | 96 | 99 | 7.0 | 13.0 | 0.00 | 0.00 | 0.00 | 40 | 943.3 |
| 20260906195728 | 96 | 117 | 7.0 | 13.0 | 0.00 | 0.00 | 0.00 | 40 | 943.4 |
| 20260906195628 | 96 | 88 | 6.0 | 13.0 | 0.00 | 0.00 | 0.00 | 40 | 943.4 |
| 20260906195528 | 96 | 108 | 6.0 | 13.0 | 0.00 | 0.00 | 0.00 | 40 | 943.5 |
| 20260906195427 | 96 | 68 | 6.0 | 13.0 | 0.00 | 0.00 | 0.00 | 40 | 943.5 |
| 20260906195324 | 96 | 91 | 6.0 | 13.0 | 0.00 | 0.00 | 0.00 | 40 | 943.5 |
| 20260906195224 | 96 | 97 | 6.0 | 13.0 | 0.00 | 0.00 | 0.00 | 39 | 943.5 |
| 20260906195124 | 96 | 104 | 6.0 | 13.0 | 0.00 | 0.00 | 0.00 | 40 | 943.5 |
| 20260906195024 | 96 | 85 | 6.0 | 13.0 | 0.00 | 0.00 | 0.00 | 41 | 943.5 |
| 20260906194921 | 96 | 138 | 6.0 | 13.0 | 0.00 | 0.00 | 0.00 | 41 | 943.5 |
| 20260906194845 | 96 | 86 | 6.0 | 11.0 | 0.00 | 0.00 | 0.00 | 40 | 943.5 |
| 20260906194716 | 96 | 134 | 6.0 | 11.0 | 0.00 | 0.00 | 0.00 | 40 | 943.5 |
| 20260906194616 | 96 | 178 | 7.0 | 11.0 | 0.00 | 0.00 | 0.00 | 40 | 943.5 |
| 20260906194516 | 96 | 78 | 7.0 | 13.0 | 0.00 | 0.00 | 0.00 | 39 | 943.6 |
| 20260906194415 | 96 | 107 | 7.0 | 13.0 | 0.00 | 0.00 | 0.00 | 41 | 943.6 |
| 20260906194310 | 96 | 102 | 8.0 | 13.0 | 0.00 | 0.00 | 0.00 | 39 | 943.6 |
| 20260906194210 | 96 | 74 | 8.0 | 13.0 | 0.00 | 0.00 | 0.00 | 38 | 943.6 |
| 20260906194110 | 96 | 110 | 7.0 | 13.0 | 0.00 | 0.00 | 0.00 | 39 | 943.6 |
| 20260906194010 | 96 | 99 | 7.0 | 13.0 | 0.00 | 0.00 | 0.00 | 39 | 943.6 |
| 20260906193909 | 97 | 94 | 6.0 | 13.0 | 0.00 | 0.00 | 0.00 | 39 | 943.6 |
| 20260906193804 | 97 | 98 | 6.0 | 13.0 | 0.00 | 0.00 | 0.00 | 40 | 943.6 |
| 20260906193704 | 97 | 138 | 5.0 | 13.0 | 0.00 | 0.00 | 0.00 | 40 | 943.7 |
| 20260906193604 | 97 | 104 | 5.0 | 13.0 | 0.00 | 0.00 | 0.00 | 39 | 943.7 |
| 20260906193504 | 97 | 90 | 5.0 | 11.0 | 0.00 | 0.00 | 0.00 | 39 | 943.7 |
| 20260906193403 | 97 | 119 | 4.0 | 11.0 | 0.00 | 0.00 | 0.00 | 39 | 943.6 |
| 20260906193257 | 97 | 72 | 4.0 | 11.0 | 0.00 | 0.00 | 0.00 | 40 | 943.6 |
| 20260906193158 | 97 | 96 | 4.0 | 11.0 | 0.00 | 0.00 | 0.00 | 44 | 943.7 |
| 20260906193058 | 97 | 29 | 4.0 | 11.0 | 0.00 | 0.00 | 0.00 | 42 | 943.7 |
| 20260906192958 | 96 | 115 | 5.0 | 11.0 | 0.00 | 0.00 | 0.00 | 39 | 943.8 |
| 20260906192857 | 96 | 181 | 5.0 | 12.0 | 0.00 | 0.00 | 0.00 | 41 | 943.8 |
| 20260906192754 | 97 | 137 | 5.0 | 12.0 | 0.00 | 0.00 | 0.00 | 40 | 943.8 |
| 20260906192654 | 97 | 100 | 5.0 | 12.0 | 0.00 | 0.00 | 0.00 | 39 | 943.8 |
| 20260906192554 | 97 | 98 | 5.0 | 12.0 | 0.00 | 0.00 | 0.00 | 40 | 943.8 |
| 20260906192454 | 97 | 79 | 5.0 | 12.0 | 0.00 | 0.00 | 0.00 | 40 | 943.8 |
| 20260906192351 | 97 | 50 | 6.0 | 12.0 | 0.00 | 0.00 | 0.00 | 42 | 943.8 |
| 20260906192248 | 97 | 41 | 5.0 | 12.0 | 0.00 | 0.00 | 0.00 | 41 | 943.8 |
| 20260906192146 | 97 | 44 | 6.0 | 12.0 | 0.00 | 0.00 | 0.00 | 39 | 943.8 |
| 20260906192046 | 97 | 69 | 5.0 | 12.0 | 0.00 | 0.00 | 0.00 | 41 | 943.9 |
| 20260906191946 | 96 | 84 | 5.0 | 12.0 | 0.00 | 0.00 | 0.00 | 40 | 943.9 |
| 20260906191845 | 96 | 78 | 5.0 | 12.0 | 0.00 | 0.00 | 0.00 | 41 | 943.9 |
| 20260906191742 | 96 | 105 | 5.0 | 12.0 | 0.00 | 0.00 | 0.00 | 40 | 943.9 |
| 20260906191642 | 96 | 155 | 5.0 | 12.0 | 0.00 | 0.00 | 0.00 | 40 | 943.9 |
| 20260906191542 | 96 | 115 | 6.0 | 12.0 | 0.00 | 0.00 | 0.00 | 40 | 943.9 |
| 20260906191442 | 96 | 157 | 6.0 | 13.0 | 0.00 | 0.00 | 0.00 | 42 | 943.9 |
| 20260906191339 | 96 | 90 | 6.0 | 13.0 | 0.00 | 0.00 | 0.00 | 40 | 943.9 |
| 20260906191235 | 96 | 343 | 7.0 | 13.0 | 0.00 | 0.00 | 0.00 | 46 | 944.0 |
| 20260906191134 | 96 | 60 | 7.0 | 13.0 | 0.00 | 0.00 | 0.00 | 39 | 944.0 |
| 20260906191033 | 96 | 63 | 8.0 | 14.0 | 0.00 | 0.00 | 0.00 | 40 | 944.0 |
| 20260906190934 | 96 | 68 | 8.0 | 14.0 | 0.00 | 0.00 | 0.00 | 43 | 944.1 |
| 20260906190834 | 96 | 84 | 9.0 | 14.0 | 0.00 | 0.00 | 0.00 | 40 | 944.0 |
| 20260906190728 | 96 | 115 | 9.0 | 14.0 | 0.00 | 0.00 | 0.00 | 40 | 944.0 |
| 20260906190627 | 96 | 100 | 9.0 | 14.0 | 0.00 | 0.00 | 0.00 | 41 | 944.1 |
| 20260906190528 | 96 | 82 | 9.0 | 14.0 | 0.00 | 0.00 | 0.00 | 40 | 944.1 |
| 20260906190427 | 96 | 88 | 8.0 | 14.0 | 0.00 | 0.00 | 0.00 | 41 | 944.1 |
| 20260906190327 | 96 | 111 | 8.0 | 14.0 | 0.00 | 0.00 | 0.00 | 42 | 944.1 |
| 20260906190222 | 96 | 100 | 7.0 | 14.0 | 0.00 | 0.00 | 0.00 | 41 | 944.0 |
| 20260906190122 | 96 | 105 | 7.0 | 14.0 | 0.00 | 0.00 | 0.00 | 41 | 944.0 |
| 20260906190022 | 96 | 104 | 7.0 | 15.0 | 0.00 | 0.00 | 0.00 | 40 | 944.1 |
| 20260906185922 | 97 | 123 | 7.0 | 16.0 | 0.00 | 0.00 | 0.00 | 40 | 944.1 |
| 20260906185821 | 97 | 87 | 7.0 | 16.0 | 0.00 | 0.00 | 0.00 | 42 | 944.1 |
| 20260906185744 | 97 | 121 | 6.0 | 16.0 | 0.00 | 0.00 | 0.00 | 40 | 944.1 |
| 20260906185616 | 97 | 153 | 6.0 | 16.0 | 0.00 | 0.00 | 0.00 | 40 | 944.0 |
| 20260906185516 | 96 | 192 | 6.0 | 16.0 | 0.00 | 0.00 | 0.00 | 40 | 944.0 |
| 20260906185416 | 96 | 185 | 6.0 | 16.0 | 0.00 | 0.00 | 0.00 | 41 | 944.1 |
| 20260906185315 | 96 | 142 | 6.0 | 16.0 | 0.00 | 0.00 | 0.00 | 40 | 944.1 |
| 20260906185210 | 96 | 157 | 7.0 | 16.0 | 0.00 | 0.00 | 0.00 | 40 | 944.2 |
| 20260906185110 | 96 | 175 | 6.0 | 16.0 | 0.00 | 0.00 | 0.00 | 40 | 944.1 |
| 20260906185010 | 96 | 108 | 6.0 | 15.0 | 0.00 | 0.00 | 0.00 | 42 | 944.2 |
| 20260906184910 | 96 | 134 | 6.0 | 12.0 | 0.00 | 0.00 | 0.00 | 41 | 944.2 |
| 20260906184809 | 96 | 112 | 6.0 | 12.0 | 0.00 | 0.00 | 0.00 | 42 | 944.2 |
| 20260906184704 | 95 | 192 | 5.0 | 12.0 | 0.00 | 0.00 | 0.00 | 42 | 944.2 |
| 20260906184604 | 95 | 173 | 5.0 | 12.0 | 0.00 | 0.00 | 0.00 | 41 | 944.3 |
| 20260906184504 | 95 | 147 | 5.0 | 12.0 | 0.00 | 0.00 | 0.00 | 44 | 944.3 |
| 20260906184404 | 95 | 142 | 5.0 | 12.0 | 0.00 | 0.00 | 0.00 | 42 | 944.3 |
| 20260906184303 | 95 | 147 | 5.0 | 12.0 | 0.00 | 0.00 | 0.00 | 44 | 944.3 |
| 20260906184157 | 95 | 115 | 5.0 | 12.0 | 0.00 | 0.00 | 0.00 | 42 | 944.3 |
| 20260906184058 | 95 | 117 | 4.0 | 12.0 | 0.00 | 0.00 | 0.00 | 43 | 944.4 |
| 20260906183958 | 95 | 115 | 4.0 | 12.0 | 0.00 | 0.00 | 0.00 | 43 | 944.4 |
| 20260906183858 | 95 | 168 | 4.0 | 12.0 | 0.00 | 0.00 | 0.00 | 43 | 944.4 |
| 20260906183757 | 95 | 96 | 4.0 | 12.0 | 0.00 | 0.00 | 0.00 | 42 | 944.4 |
| 20260906183651 | 95 | 271 | 4.0 | 12.0 | 0.00 | 0.00 | 0.00 | 42 | 944.4 |
| 20260906183552 | 96 | 187 | 4.0 | 12.0 | 0.00 | 0.00 | 0.00 | 41 | 944.4 |
| 20260906183452 | 96 | 120 | 3.0 | 12.0 | 0.00 | 0.00 | 0.00 | 41 | 944.4 |
| 20260906183352 | 96 | 141 | 3.0 | 6.0 | 0.00 | 0.00 | 0.00 | 41 | 944.5 |
| 20260906183251 | 96 | 134 | 3.0 | 7.0 | 0.00 | 0.00 | 0.00 | 41 | 944.5 |
| 20260906183145 | 96 | 165 | 3.0 | 8.0 | 0.00 | 0.00 | 0.00 | 42 | 944.5 |
| 20260906183046 | 96 | 188 | 4.0 | 10.0 | 0.00 | 0.00 | 0.00 | 43 | 944.4 |
| 20260906182946 | 96 | 94 | 4.0 | 13.0 | 0.00 | 0.00 | 0.00 | 42 | 944.5 |
| 20260906182846 | 96 | 166 | 4.0 | 13.0 | 0.00 | 0.00 | 0.00 | 42 | 944.5 |
| 20260906182745 | 96 | 210 | 4.0 | 13.0 | 0.00 | 0.00 | 0.00 | 42 | 944.5 |
| 20260906182639 | 96 | 234 | 5.0 | 13.0 | 0.00 | 0.00 | 0.00 | 42 | 944.5 |
| 20260906182540 | 95 | 198 | 5.0 | 13.0 | 0.00 | 0.00 | 0.00 | 45 | 944.5 |
| 20260906182440 | 95 | 296 | 6.0 | 13.0 | 0.00 | 0.00 | 0.00 | 44 | 944.6 |
| 20260906182339 | 95 | 322 | 6.0 | 13.0 | 0.00 | 0.00 | 0.00 | 46 | 944.6 |
| 20260906182240 | 95 | 22 | 6.0 | 13.0 | 0.00 | 0.00 | 0.00 | 43 | 944.6 |
| 20260906182133 | 95 | 124 | 7.0 | 13.0 | 0.00 | 0.00 | 0.00 | 43 | 944.6 |
| 20260906182033 | 95 | 144 | 6.0 | 13.0 | 0.00 | 0.00 | 0.00 | 47 | 944.6 |
| 20260906181933 | 94 | 50 | 6.0 | 13.0 | 0.00 | 0.00 | 0.00 | 43 | 944.6 |
| 20260906181833 | 94 | 82 | 6.0 | 13.0 | 0.00 | 0.00 | 0.00 | 43 | 944.6 |
| 20260906181733 | 94 | 53 | 6.0 | 13.0 | 0.00 | 0.00 | 0.00 | 44 | 944.7 |
| 20260906181629 | 94 | 92 | 6.0 | 13.0 | 0.00 | 0.00 | 0.00 | 42 | 944.7 |
| 20260906181529 | 94 | 74 | 5.0 | 13.0 | 0.00 | 0.00 | 0.00 | 43 | 944.7 |
| 20260906181429 | 94 | 111 | 5.0 | 11.0 | 0.00 | 0.00 | 0.00 | 43 | 944.7 |
| 20260906181329 | 94 | 123 | 4.0 | 10.0 | 0.00 | 0.00 | 0.00 | 42 | 944.7 |
| 20260906181227 | 95 | 107 | 4.0 | 10.0 | 0.00 | 0.00 | 0.00 | 43 | 944.8 |
| 20260906181125 | 95 | 119 | 4.0 | 10.0 | 0.00 | 0.00 | 0.00 | 44 | 944.7 |
| 20260906181025 | 95 | 42 | 4.0 | 9.0 | 0.00 | 0.00 | 0.00 | 42 | 944.7 |
| 20260906180926 | 95 | 36 | 3.0 | 9.0 | 0.00 | 0.00 | 0.00 | 44 | 944.8 |
| 20260906180823 | 95 | 87 | 3.0 | 9.0 | 0.00 | 0.00 | 0.00 | 49 | 944.8 |
| 20260906180721 | 95 | 61 | 3.0 | 9.0 | 0.00 | 0.00 | 0.00 | 44 | 944.8 |
| 20260906180616 | 95 | 49 | 3.0 | 8.0 | 0.00 | 0.00 | 0.00 | 44 | 944.8 |
| 20260906180516 | 94 | 34 | 3.0 | 8.0 | 0.00 | 0.00 | 0.00 | 44 | 944.8 |
| 20260906180416 | 94 | 71 | 3.0 | 8.0 | 0.00 | 0.00 | 0.00 | 46 | 944.9 |
| 20260906180316 | 94 | 304 | 3.0 | 8.0 | 0.00 | 0.00 | 0.00 | 46 | 944.9 |
| 20260906180215 | 94 | 325 | 3.0 | 8.0 | 0.00 | 0.00 | 0.00 | 44 | 944.9 |
| 20260906180110 | 93 | 10 | 3.0 | 9.0 | 0.00 | 0.00 | 0.00 | 45 | 944.9 |
| 20260906180010 | 93 | 53 | 4.0 | 9.0 | 0.00 | 0.00 | 0.00 | 45 | 945.0 |
| 20260906175910 | 93 | 134 | 4.0 | 9.0 | 0.00 | 0.00 | 0.00 | 46 | 945.0 |
| 20260906175810 | 93 | 112 | 4.0 | 9.0 | 0.00 | 0.00 | 0.00 | 45 | 945.0 |
| 20260906175709 | 93 | 89 | 5.0 | 9.0 | 0.00 | 0.00 | 0.00 | 45 | 945.1 |
| 20260906175604 | 93 | 33 | 5.0 | 9.0 | 0.00 | 0.00 | 0.00 | 45 | 945.1 |
| 20260906175504 | 93 | 42 | 6.0 | 11.0 | 0.00 | 0.00 | 0.00 | 46 | 945.2 |
| 20260906175404 | 93 | 45 | 6.0 | 11.0 | 0.00 | 0.00 | 0.00 | 45 | 945.2 |
| 20260906175306 | 93 | 34 | 6.0 | 11.0 | 0.00 | 0.00 | 0.00 | 45 | 945.2 |
| 20260906175203 | 93 | 36 | 6.0 | 11.0 | 0.00 | 0.00 | 0.00 | 45 | 945.2 |
| 20260906175057 | 93 | 82 | 6.0 | 11.0 | 0.00 | 0.00 | 0.00 | 45 | 945.2 |
| 20260906174958 | 94 | 56 | 6.0 | 11.0 | 0.00 | 0.00 | 0.00 | 44 | 945.2 |
| 20260906174858 | 94 | 65 | 6.0 | 11.0 | 0.00 | 0.00 | 0.00 | 45 | 945.2 |
| 20260906174758 | 94 | 36 | 6.0 | 11.0 | 0.00 | 0.00 | 0.00 | 43 | 945.3 |
| 20260906174658 | 94 | 74 | 6.0 | 11.0 | 0.00 | 0.00 | 0.00 | 43 | 945.2 |
| 20260906174551 | 95 | 72 | 6.0 | 12.0 | 0.00 | 0.00 | 0.00 | 45 | 945.3 |
| 20260906174451 | 95 | 84 | 6.0 | 12.0 | 0.00 | 0.00 | 0.00 | 44 | 945.3 |
| 20260906174352 | 95 | 355 | 6.0 | 12.0 | 0.00 | 0.00 | 0.00 | 43 | 945.3 |
| 20260906174251 | 95 | 15 | 7.0 | 12.0 | 0.00 | 0.00 | 0.00 | 43 | 945.3 |
| 20260906174152 | 95 | 67 | 7.0 | 12.0 | 0.00 | 0.00 | 0.00 | 43 | 945.3 |
| 20260906174045 | 95 | 81 | 7.0 | 12.0 | 0.00 | 0.00 | 0.00 | 43 | 945.4 |
| 20260906173945 | 95 | 107 | 6.0 | 12.0 | 0.00 | 0.00 | 0.00 | 42 | 945.4 |
| 20260906173845 | 95 | 98 | 6.0 | 12.0 | 0.00 | 0.00 | 0.00 | 42 | 945.4 |
| 20260906173746 | 95 | 107 | 6.0 | 12.0 | 0.00 | 0.00 | 0.00 | 46 | 945.4 |
| 20260906173646 | 95 | 92 | 5.0 | 12.0 | 0.00 | 0.00 | 0.00 | 43 | 945.4 |
| 20260906173541 | 95 | 44 | 5.0 | 12.0 | 0.00 | 0.00 | 0.00 | 47 | 945.4 |
| 20260906173439 | 95 | 51 | 4.0 | 12.0 | 0.00 | 0.00 | 0.00 | 48 | 945.5 |
| 20260906173339 | 95 | 0 | 4.0 | 10.0 | 0.00 | 0.00 | 0.00 | 44 | 945.4 |
| 20260906173239 | 95 | 85 | 4.0 | 9.0 | 0.00 | 0.00 | 0.00 | 44 | 945.5 |
| 20260906173139 | 95 | 66 | 3.0 | 9.0 | 0.00 | 0.00 | 0.00 | 43 | 945.5 |
| 20260906173033 | 95 | 72 | 4.0 | 9.0 | 0.00 | 0.00 | 0.00 | 46 | 945.5 |
| 20260906172933 | 95 | 68 | 4.0 | 10.0 | 0.00 | 0.00 | 0.00 | 46 | 945.5 |
| 20260906172833 | 95 | 61 | 4.0 | 11.0 | 0.00 | 0.00 | 0.00 | 47 | 945.5 |
| 20260906172733 | 95 | 355 | 4.0 | 11.0 | 0.00 | 0.00 | 0.00 | 44 | 945.5 |
| 20260906172633 | 94 | 67 | 5.0 | 11.0 | 0.00 | 0.00 | 0.00 | 45 | 945.5 |
| 20260906172528 | 94 | 41 | 5.0 | 12.0 | 0.00 | 0.00 | 0.00 | 44 | 945.5 |
| 20260906172428 | 94 | 130 | 6.0 | 12.0 | 0.00 | 0.00 | 0.00 | 45 | 945.5 |
| 20260906172328 | 94 | 148 | 6.0 | 12.0 | 0.00 | 0.00 | 0.00 | 44 | 945.5 |
| 20260906172228 | 94 | 127 | 6.0 | 12.0 | 0.00 | 0.00 | 0.00 | 45 | 945.5 |
| 20260906172127 | 94 | 116 | 6.0 | 12.0 | 0.00 | 0.00 | 0.00 | 46 | 945.6 |
| 20260906172022 | 94 | 131 | 6.0 | 12.0 | 0.00 | 0.00 | 0.00 | 45 | 945.6 |
| 20260906171922 | 94 | 93 | 6.0 | 12.0 | 0.00 | 0.00 | 0.00 | 45 | 945.6 |
| 20260906171822 | 94 | 119 | 6.0 | 12.0 | 0.00 | 0.00 | 0.00 | 45 | 945.6 |
| 20260906171722 | 94 | 97 | 6.0 | 12.0 | 0.00 | 0.00 | 0.00 | 48 | 945.6 |
| 20260906171621 | 94 | 71 | 6.0 | 12.0 | 0.00 | 0.00 | 0.00 | 46 | 945.6 |
| 20260906171516 | 94 | 56 | 6.0 | 10.0 | 0.00 | 0.00 | 0.00 | 46 | 945.6 |
| 20260906171416 | 94 | 35 | 6.0 | 12.0 | 0.00 | 0.00 | 0.00 | 46 | 945.6 |
| 20260906171316 | 94 | 49 | 7.0 | 14.0 | 0.00 | 0.00 | 0.00 | 44 | 945.6 |
| 20260906171216 | 94 | 44 | 7.0 | 14.0 | 0.00 | 0.00 | 0.00 | 45 | 945.6 |
| 20260906171115 | 94 | 55 | 7.0 | 14.0 | 0.00 | 0.00 | 0.00 | 46 | 945.6 |
| 20260906171009 | 94 | 59 | 7.0 | 14.0 | 0.00 | 0.00 | 0.00 | 45 | 945.6 |
| 20260906170910 | 94 | 44 | 7.0 | 14.0 | 0.00 | 0.00 | 0.00 | 47 | 945.7 |
| 20260906170810 | 94 | 78 | 8.0 | 14.0 | 0.00 | 0.00 | 0.00 | 46 | 945.7 |
| 20260906170710 | 94 | 86 | 8.0 | 14.0 | 0.00 | 0.00 | 0.00 | 46 | 945.7 |
| 20260906170609 | 94 | 117 | 7.0 | 14.0 | 0.00 | 0.00 | 0.00 | 44 | 945.7 |
| 20260906170503 | 94 | 98 | 7.0 | 14.0 | 0.00 | 0.00 | 0.00 | 46 | 945.6 |
| 20260906170403 | 94 | 113 | 6.0 | 14.0 | 0.00 | 0.00 | 0.00 | 46 | 945.7 |
| 20260906170304 | 94 | 101 | 5.0 | 12.0 | 0.00 | 0.00 | 0.00 | 45 | 945.7 |
| 20260906170204 | 94 | 123 | 5.0 | 12.0 | 0.00 | 0.00 | 0.00 | 44 | 945.7 |
| 20260906170103 | 94 | 107 | 5.0 | 12.0 | 0.00 | 0.00 | 0.00 | 45 | 945.7 |
| 20260906165957 | 94 | 119 | 5.0 | 15.0 | 0.00 | 0.00 | 0.00 | 47 | 945.7 |
| 20260906165858 | 93 | 148 | 5.0 | 15.0 | 0.00 | 0.00 | 0.00 | 45 | 945.7 |
| 20260906165758 | 93 | 125 | 5.0 | 15.0 | 0.00 | 0.00 | 0.00 | 45 | 945.7 |
| 20260906165658 | 94 | 100 | 5.0 | 15.0 | 0.00 | 0.00 | 0.00 | 45 | 945.8 |
| 20260906165558 | 94 | 130 | 6.0 | 15.0 | 0.00 | 0.00 | 0.00 | 44 | 945.8 |
| 20260906165451 | 94 | 254 | 6.0 | 15.0 | 0.00 | 0.00 | 0.00 | 47 | 945.7 |
| 20260906165351 | 94 | 140 | 7.0 | 15.0 | 0.00 | 0.00 | 0.00 | 47 | 945.8 |
| 20260906165252 | 93 | 106 | 7.0 | 15.0 | 0.00 | 0.00 | 0.00 | 45 | 945.9 |
| 20260906165152 | 93 | 127 | 8.0 | 15.0 | 0.00 | 0.00 | 0.00 | 45 | 945.8 |
| 20260906165052 | 93 | 109 | 8.0 | 16.0 | 0.00 | 0.00 | 0.00 | 45 | 945.9 |
| 20260906164945 | 93 | 130 | 8.0 | 16.0 | 0.00 | 0.00 | 0.00 | 44 | 945.8 |
| 20260906164846 | 93 | 137 | 8.0 | 16.0 | 0.00 | 0.00 | 0.00 | 45 | 945.8 |
| 20260906164746 | 93 | 80 | 8.0 | 16.0 | 0.00 | 0.00 | 0.00 | 46 | 945.9 |
| 20260906164646 | 93 | 108 | 8.0 | 16.0 | 0.00 | 0.00 | 0.00 | 46 | 945.9 |
| 20260906164546 | 93 | 124 | 8.0 | 16.0 | 0.00 | 0.00 | 0.00 | 44 | 945.9 |
| 20260906164439 | 93 | 155 | 8.0 | 16.0 | 0.00 | 0.00 | 0.00 | 46 | 945.9 |
| 20260906164339 | 93 | 126 | 8.0 | 16.0 | 0.00 | 0.00 | 0.00 | 46 | 945.9 |
| 20260906164239 | 93 | 111 | 8.0 | 16.0 | 0.00 | 0.00 | 0.00 | 46 | 945.9 |
| 20260906164139 | 93 | 103 | 8.0 | 16.0 | 0.00 | 0.00 | 0.00 | 45 | 945.9 |
| 20260906164039 | 93 | 94 | 8.0 | 14.0 | 0.00 | 0.00 | 0.00 | 46 | 945.9 |
| 20260906163933 | 92 | 67 | 8.0 | 14.0 | 0.00 | 0.00 | 0.00 | 47 | 945.9 |
| 20260906163833 | 92 | 75 | 8.0 | 14.0 | 0.00 | 0.00 | 0.00 | 49 | 945.9 |
| 20260906163733 | 92 | 163 | 8.0 | 14.0 | 0.00 | 0.00 | 0.00 | 49 | 945.9 |
| 20260906163633 | 92 | 63 | 8.0 | 14.0 | 0.00 | 0.00 | 0.00 | 47 | 945.9 |
| 20260906163533 | 92 | 82 | 8.0 | 14.0 | 0.00 | 0.00 | 0.00 | 46 | 945.9 |
| 20260906163429 | 92 | 99 | 8.0 | 14.0 | 0.00 | 0.00 | 0.00 | 46 | 945.9 |
| 20260906163327 | 92 | 95 | 7.0 | 14.0 | 0.00 | 0.00 | 0.00 | 46 | 945.9 |
| 20260906163227 | 92 | 84 | 6.0 | 14.0 | 0.00 | 0.00 | 0.00 | 47 | 945.9 |
| 20260906163127 | 92 | 107 | 6.0 | 12.0 | 0.00 | 0.00 | 0.00 | 47 | 945.9 |
| 20260906163027 | 93 | 81 | 5.0 | 12.0 | 0.00 | 0.00 | 0.00 | 47 | 945.8 |
| 20260906162923 | 93 | 48 | 5.0 | 10.0 | 0.00 | 0.00 | 0.00 | 47 | 945.9 |
| 20260906162824 | 93 | 38 | 4.0 | 10.0 | 0.00 | 0.00 | 0.00 | 48 | 945.8 |
| 20260906162724 | 93 | 59 | 4.0 | 10.0 | 0.00 | 0.00 | 0.00 | 47 | 945.9 |
| 20260906162624 | 93 | 46 | 4.0 | 10.0 | 0.00 | 0.00 | 0.00 | 49 | 945.9 |
| 20260906162521 | 92 | 43 | 4.0 | 10.0 | 0.00 | 0.00 | 0.00 | 48 | 945.9 |
| 20260906162418 | 92 | 30 | 4.0 | 10.0 | 0.00 | 0.00 | 0.00 | 46 | 945.9 |
| 20260906162316 | 92 | 15 | 4.0 | 10.0 | 0.00 | 0.00 | 0.00 | 46 | 945.9 |
| 20260906162216 | 92 | 63 | 4.0 | 10.0 | 0.00 | 0.00 | 0.00 | 48 | 945.9 |
| 20260906162116 | 92 | 70 | 4.0 | 10.0 | 0.00 | 0.00 | 0.00 | 46 | 946.0 |
| 20260906162015 | 92 | 5 | 4.0 | 10.0 | 0.00 | 0.00 | 0.00 | 46 | 945.9 |
| 20260906161912 | 92 | 109 | 4.0 | 10.0 | 0.00 | 0.00 | 0.00 | 46 | 945.9 |
| 20260906161810 | 92 | 127 | 3.0 | 10.0 | 0.00 | 0.00 | 0.00 | 47 | 945.9 |
| 20260906161710 | 92 | 120 | 3.0 | 10.0 | 0.00 | 0.00 | 0.00 | 46 | 945.9 |
| 20260906161610 | 92 | 132 | 3.0 | 10.0 | 0.00 | 0.00 | 0.00 | 46 | 945.9 |
| 20260906161509 | 92 | 146 | 3.0 | 10.0 | 0.00 | 0.00 | 0.00 | 46 | 945.9 |
| 20260906161403 | 92 | 121 | 2.0 | 7.0 | 0.00 | 0.00 | 0.00 | 48 | 946.0 |
| 20260906161304 | 92 | 71 | 3.0 | 8.0 | 0.00 | 0.00 | 0.00 | 46 | 946.0 |
| 20260906161204 | 92 | 131 | 3.0 | 8.0 | 0.00 | 0.00 | 0.00 | 47 | 946.0 |
| 20260906161104 | 92 | 149 | 3.0 | 8.0 | 0.00 | 0.00 | 0.00 | 49 | 946.0 |
| 20260906161003 | 92 | 318 | 3.0 | 8.0 | 0.00 | 0.00 | 0.00 | 50 | 945.9 |
| 20260906160857 | 92 | 318 | 4.0 | 8.0 | 0.00 | 0.00 | 0.00 | 49 | 945.9 |
| 20260906160757 | 92 | 42 | 4.0 | 8.0 | 0.00 | 0.00 | 0.00 | 48 | 945.9 |
| 20260906160658 | 92 | 58 | 4.0 | 8.0 | 0.00 | 0.00 | 0.00 | 48 | 945.9 |
| 20260906160558 | 92 | 46 | 4.0 | 8.0 | 0.00 | 0.00 | 0.00 | 48 | 945.9 |
| 20260906160457 | 92 | 44 | 3.0 | 8.0 | 0.00 | 0.00 | 0.00 | 48 | 945.9 |
| 20260906160353 | 92 | 65 | 3.0 | 8.0 | 0.00 | 0.00 | 0.00 | 49 | 945.9 |
| 20260906160253 | 92 | 125 | 3.0 | 7.0 | 0.00 | 0.00 | 0.00 | 48 | 945.9 |
| 20260906160154 | 92 | 170 | 3.0 | 7.0 | 0.00 | 0.00 | 0.00 | 48 | 945.9 |
| 20260906160054 | 92 | 148 | 3.0 | 7.0 | 0.00 | 0.00 | 0.00 | 47 | 945.9 |
| 20260906155952 | 92 | 166 | 2.0 | 7.0 | 0.00 | 0.00 | 0.00 | 48 | 945.9 |
| 20260906155845 | 92 | 162 | 2.0 | 5.0 | 0.00 | 0.00 | 0.00 | 49 | 945.9 |
| 20260906155745 | 92 | 126 | 2.0 | 5.0 | 0.00 | 0.00 | 0.00 | 50 | 945.9 |
| 20260906155645 | 92 | 130 | 2.0 | 5.0 | 0.00 | 0.00 | 0.00 | 50 | 945.9 |
| 20260906155545 | 92 | 144 | 2.0 | 4.0 | 0.00 | 0.00 | 0.00 | 52 | 945.9 |
| 20260906155445 | 91 | 182 | 2.0 | 4.0 | 0.00 | 0.00 | 0.00 | 51 | 945.9 |
| 20260906155341 | 91 | 143 | 2.0 | 4.0 | 0.00 | 0.00 | 0.00 | 51 | 945.9 |
| 20260906155241 | 91 | 166 | 2.0 | 4.0 | 0.00 | 0.00 | 0.00 | 53 | 945.8 |
| 20260906155141 | 91 | 198 | 2.0 | 4.0 | 0.00 | 0.00 | 0.00 | 52 | 945.8 |
| 20260906155041 | 91 | 181 | 2.0 | 5.0 | 0.00 | 0.00 | 0.00 | 51 | 945.8 |
| 20260906154939 | 91 | 122 | 2.0 | 5.0 | 0.00 | 0.00 | 0.00 | 52 | 945.8 |
| 20260906154901 | 91 | 153 | 2.0 | 5.0 | 0.00 | 0.00 | 0.00 | 51 | 945.8 |
| 20260906154733 | 91 | 165 | 3.0 | 5.0 | 0.00 | 0.00 | 0.00 | 52 | 945.9 |
| 20260906154634 | 91 | 150 | 3.0 | 5.0 | 0.00 | 0.00 | 0.00 | 51 | 945.8 |
| 20260906154533 | 91 | 175 | 3.0 | 5.0 | 0.00 | 0.00 | 0.00 | 54 | 945.8 |
| 20260906154434 | 91 | 118 | 3.0 | 5.0 | 0.00 | 0.00 | 0.00 | 52 | 945.9 |
| 20260906154329 | 91 | 164 | 3.0 | 5.0 | 0.00 | 0.00 | 0.00 | 53 | 945.9 |
| 20260906154230 | 90 | 202 | 2.0 | 5.0 | 0.00 | 0.00 | 0.00 | 54 | 945.9 |
| 20260906154130 | 90 | 169 | 2.0 | 5.0 | 0.00 | 0.00 | 0.00 | 54 | 945.9 |
| 20260906154030 | 90 | 148 | 2.0 | 5.0 | 0.00 | 0.00 | 0.00 | 54 | 945.8 |
| 20260906153928 | 90 | 167 | 2.0 | 5.0 | 0.00 | 0.00 | 0.00 | 54 | 945.9 |
| 20260906153821 | 90 | 137 | 2.0 | 4.0 | 0.00 | 0.00 | 0.00 | 54 | 945.8 |
| 20260906153721 | 90 | 116 | 2.0 | 4.0 | 0.00 | 0.00 | 0.00 | 54 | 945.8 |
| 20260906153622 | 90 | 79 | 2.0 | 4.0 | 0.00 | 0.00 | 0.00 | 56 | 945.8 |
| 20260906153521 | 90 | 86 | 1.0 | 4.0 | 0.00 | 0.00 | 0.00 | 54 | 945.8 |
| 20260906153422 | 90 | 107 | 1.0 | 4.0 | 0.00 | 0.00 | 0.00 | 55 | 945.8 |
| 20260906153320 | 90 | 67 | 1.0 | 4.0 | 0.00 | 0.00 | 0.00 | 56 | 945.9 |
| 20260906153219 | 90 | 217 | 1.0 | 4.0 | 0.00 | 0.00 | 0.00 | 54 | 945.9 |
| 20260906153117 | 90 | 217 | 1.0 | 4.0 | 0.00 | 0.00 | 0.00 | 56 | 945.8 |
| 20260906153018 | 90 | 221 | 2.0 | 4.0 | 0.00 | 0.00 | 0.00 | 54 | 945.8 |
| 20260906152915 | 90 | 233 | 2.0 | 4.0 | 0.00 | 0.00 | 0.00 | 56 | 945.8 |
| 20260906152813 | 90 | 242 | 2.0 | 4.0 | 0.00 | 0.00 | 0.00 | 55 | 945.8 |
| 20260906152714 | 90 | 238 | 2.0 | 4.0 | 0.00 | 0.00 | 0.00 | 56 | 945.8 |
| 20260906152614 | 90 | 279 | 2.0 | 4.0 | 0.00 | 0.00 | 0.00 | 54 | 945.8 |
| 20260906152511 | 90 | 270 | 2.0 | 4.0 | 0.00 | 0.00 | 0.00 | 55 | 945.8 |
| 20260906152409 | 90 | 263 | 1.0 | 4.0 | 0.00 | 0.00 | 0.00 | 55 | 945.7 |
| 20260906152306 | 90 | 264 | 1.0 | 4.0 | 0.00 | 0.00 | 0.00 | 55 | 945.8 |
| 20260906152203 | 90 | 259 | 1.0 | 4.0 | 0.00 | 0.00 | 0.00 | 55 | 945.8 |
| 20260906152103 | 90 | 355 | 1.0 | 4.0 | 0.00 | 0.00 | 0.00 | 56 | 945.8 |
| 20260906152003 | 90 | 327 | 2.0 | 4.0 | 0.00 | 0.00 | 0.00 | 57 | 945.8 |
| 20260906151903 | 89 | 279 | 2.0 | 4.0 | 0.00 | 0.00 | 0.00 | 57 | 945.8 |
| 20260906151826 | 89 | 267 | 2.0 | 4.0 | 0.00 | 0.00 | 0.00 | 57 | 945.7 |
| 20260906151658 | 89 | 298 | 2.0 | 4.0 | 0.00 | 0.00 | 0.00 | 58 | 945.8 |
| 20260906151558 | 89 | 329 | 2.0 | 4.0 | 0.00 | 0.00 | 0.00 | 56 | 945.7 |
| 20260906151458 | 89 | 26 | 2.0 | 4.0 | 0.00 | 0.00 | 0.00 | 58 | 945.7 |
| 20260906151357 | 89 | 26 | 2.0 | 4.0 | 0.00 | 0.00 | 0.00 | 58 | 945.7 |
| 20260906151252 | 89 | 5 | 2.0 | 4.0 | 0.00 | 0.00 | 0.00 | 59 | 945.7 |
| 20260906151152 | 89 | 299 | 2.0 | 4.0 | 0.00 | 0.00 | 0.00 | 59 | 945.7 |
| 20260906151052 | 89 | 306 | 1.0 | 4.0 | 0.00 | 0.00 | 0.00 | 58 | 945.7 |
| 20260906150952 | 89 | 298 | 1.0 | 4.0 | 0.00 | 0.00 | 0.00 | 57 | 945.6 |
| 20260906150851 | 89 | 267 | 1.0 | 4.0 | 0.00 | 0.00 | 0.00 | 58 | 945.7 |
| 20260906150748 | 88 | 254 | 1.0 | 3.0 | 0.00 | 0.00 | 0.00 | 60 | 945.7 |
| 20260906150647 | 88 | 319 | 1.0 | 3.0 | 0.00 | 0.00 | 0.00 | 60 | 945.7 |
| 20260906150547 | 88 | 306 | 1.0 | 3.0 | 0.00 | 0.00 | 0.00 | 60 | 945.7 |
| 20260906150448 | 88 | 294 | 1.0 | 3.0 | 0.00 | 0.00 | 0.00 | 58 | 945.7 |
| 20260906150345 | 88 | 302 | 1.0 | 5.0 | 0.00 | 0.00 | 0.00 | 58 | 945.7 |
| 20260906150242 | 88 | 223 | 1.0 | 5.0 | 0.00 | 0.00 | 0.00 | 59 | 945.7 |
| 20260906150140 | 88 | 223 | 2.0 | 5.0 | 0.00 | 0.00 | 0.00 | 60 | 945.6 |
| 20260906150040 | 87 | 245 | 2.0 | 5.0 | 0.00 | 0.00 | 0.00 | 59 | 945.7 |
| 20260906145940 | 87 | 208 | 2.0 | 5.0 | 0.00 | 0.00 | 0.00 | 59 | 945.7 |
| 20260906145839 | 87 | 241 | 2.0 | 5.0 | 0.00 | 0.00 | 0.00 | 59 | 945.7 |
| 20260906145734 | 87 | 241 | 2.0 | 5.0 | 0.00 | 0.00 | 0.00 | 59 | 945.7 |
| 20260906145634 | 87 | 220 | 2.0 | 5.0 | 0.00 | 0.00 | 0.00 | 59 | 945.6 |
| 20260906145534 | 87 | 235 | 2.0 | 5.0 | 0.00 | 0.00 | 0.00 | 60 | 945.7 |
| 20260906145433 | 87 | 237 | 2.0 | 5.0 | 0.00 | 0.00 | 0.00 | 60 | 945.7 |
| 20260906145333 | 87 | 5 | 2.0 | 5.0 | 0.00 | 0.00 | 0.00 | 60 | 945.7 |
| 20260906145229 | 87 | 348 | 2.0 | 5.0 | 0.00 | 0.00 | 0.00 | 60 | 945.7 |
| 20260906145129 | 87 | 288 | 2.0 | 5.0 | 0.00 | 0.00 | 0.00 | 60 | 945.7 |
| 20260906145029 | 87 | 297 | 2.0 | 5.0 | 0.00 | 0.00 | 0.00 | 61 | 945.6 |
| 20260906144929 | 87 | 286 | 2.0 | 5.0 | 0.00 | 0.00 | 0.00 | 61 | 945.7 |
| 20260906144827 | 87 | 296 | 2.0 | 5.0 | 0.00 | 0.00 | 0.00 | 61 | 945.7 |
| 20260906144723 | 87 | 294 | 2.0 | 5.0 | 0.00 | 0.00 | 0.00 | 61 | 945.7 |
| 20260906144621 | 87 | 237 | 1.0 | 4.0 | 0.00 | 0.00 | 0.00 | 61 | 945.6 |
| 20260906144521 | 87 | 30 | 1.0 | 4.0 | 0.00 | 0.00 | 0.00 | 61 | 945.7 |
| 20260906144421 | 86 | 30 | 1.0 | 4.0 | 0.00 | 0.00 | 0.00 | 61 | 945.7 |
| 20260906144321 | 86 | 95 | 1.0 | 4.0 | 0.00 | 0.00 | 0.00 | 61 | 945.7 |
| 20260906144248 | 86 | 287 | 1.0 | 4.0 | 0.00 | 0.00 | 0.00 | 60 | 945.6 |
| 20260906144117 | 86 | 263 | 1.0 | 4.0 | 0.00 | 0.00 | 0.00 | 62 | 945.6 |
| 20260906144018 | 86 | 277 | 1.0 | 4.0 | 0.00 | 0.00 | 0.00 | 63 | 945.6 |
| 20260906143917 | 86 | 308 | 1.0 | 3.0 | 0.00 | 0.00 | 0.00 | 63 | 945.7 |
| 20260906143815 | 86 | 305 | 1.0 | 3.0 | 0.00 | 0.00 | 0.00 | 63 | 945.7 |
| 20260906143712 | 85 | 313 | 1.0 | 3.0 | 0.00 | 0.00 | 0.00 | 65 | 945.7 |
| 20260906143609 | 85 | 313 | 1.0 | 3.0 | 0.00 | 0.00 | 0.00 | 65 | 945.7 |
| 20260906143510 | 85 | 313 | 1.0 | 3.0 | 0.00 | 0.00 | 0.00 | 64 | 945.7 |
| 20260906143412 | 85 | 313 | 1.0 | 4.0 | 0.00 | 0.00 | 0.00 | 66 | 945.7 |
| 20260906143309 | 85 | 300 | 1.0 | 4.0 | 0.00 | 0.00 | 0.00 | 64 | 945.7 |
| 20260906143247 | 84 | 311 | 1.0 | 4.0 | 0.00 | 0.00 | 0.00 | 65 | 945.7 |
| 20260906143107 | 84 | 281 | 1.0 | 5.0 | 0.00 | 0.00 | 0.00 | 65 | 945.7 |
| 20260906143005 | 84 | 289 | 2.0 | 5.0 | 0.00 | 0.00 | 0.00 | 65 | 945.7 |
| 20260906142905 | 84 | 289 | 2.0 | 6.0 | 0.00 | 0.00 | 0.00 | 64 | 945.7 |
| 20260906142803 | 84 | 236 | 2.0 | 6.0 | 0.00 | 0.00 | 0.00 | 64 | 945.8 |
| 20260906142557 | 84 | 217 | 2.0 | 6.0 | 0.00 | 0.00 | 0.00 | 64 | 945.8 |
| 20260906142457 | 84 | 220 | 2.0 | 6.0 | 0.00 | 0.00 | 0.00 | 64 | 945.7 |
| 20260906142357 | 83 | 206 | 3.0 | 6.0 | 0.00 | 0.00 | 0.00 | 64 | 945.7 |
| 20260906142257 | 83 | 257 | 3.0 | 6.0 | 0.00 | 0.00 | 0.00 | 64 | 945.8 |
| 20260906142151 | 83 | 281 | 3.0 | 6.0 | 0.00 | 0.00 | 0.00 | 65 | 945.8 |
| 20260906142051 | 83 | 234 | 3.0 | 6.0 | 0.00 | 0.00 | 0.00 | 66 | 945.8 |
| 20260906141951 | 83 | 189 | 2.0 | 6.0 | 0.00 | 0.00 | 0.00 | 65 | 945.8 |
| 20260906141851 | 83 | 208 | 2.0 | 5.0 | 0.00 | 0.00 | 0.00 | 65 | 945.8 |
| 20260906141751 | 83 | 233 | 2.0 | 5.0 | 0.00 | 0.00 | 0.00 | 65 | 945.8 |
| 20260906141648 | 83 | 198 | 2.0 | 5.0 | 0.00 | 0.00 | 0.00 | 66 | 945.8 |
| 20260906141547 | 83 | 202 | 2.0 | 5.0 | 0.00 | 0.00 | 0.00 | 65 | 945.8 |
| 20260906141447 | 83 | 203 | 2.0 | 5.0 | 0.00 | 0.00 | 0.00 | 66 | 945.8 |
| 20260906141347 | 82 | 211 | 2.0 | 5.0 | 0.00 | 0.00 | 0.00 | 66 | 945.8 |
| 20260906141245 | 82 | 209 | 2.0 | 5.0 | 0.00 | 0.00 | 0.00 | 66 | 945.8 |
| 20260906141145 | 82 | 150 | 2.0 | 5.0 | 0.00 | 0.00 | 0.00 | 66 | 945.7 |
| 20260906141045 | 82 | 167 | 2.0 | 5.0 | 0.00 | 0.00 | 0.00 | 66 | 945.7 |
| 20260906140945 | 82 | 209 | 2.0 | 5.0 | 0.00 | 0.00 | 0.00 | 66 | 945.7 |
| 20260906140845 | 82 | 190 | 2.0 | 5.0 | 0.00 | 0.00 | 0.00 | 66 | 945.7 |
| 20260906140745 | 82 | 196 | 2.0 | 5.0 | 0.00 | 0.00 | 0.00 | 66 | 945.7 |
| 20260906140645 | 82 | 192 | 2.0 | 5.0 | 0.00 | 0.00 | 0.00 | 66 | 945.7 |
| 20260906140545 | 81 | 205 | 2.0 | 4.0 | 0.00 | 0.00 | 0.00 | 66 | 945.7 |
| 20260906140445 | 81 | 202 | 2.0 | 4.0 | 0.00 | 0.00 | 0.00 | 67 | 945.7 |
| 20260906140343 | 81 | 193 | 2.0 | 4.0 | 0.00 | 0.00 | 0.00 | 67 | 945.7 |
| 20260906140243 | 81 | 221 | 1.0 | 4.0 | 0.00 | 0.00 | 0.00 | 67 | 945.7 |
| 20260906140039 | 81 | 192 | 1.0 | 4.0 | 0.00 | 0.00 | 0.00 | 69 | 945.7 |
| 20260906135939 | 80 | 192 | 1.0 | 4.0 | 0.00 | 0.00 | 0.00 | 67 | 945.7 |
| 20260906135839 | 80 | 196 | 1.0 | 3.0 | 0.00 | 0.00 | 0.00 | 68 | 945.6 |
| 20260906135739 | 80 | 167 | 1.0 | 3.0 | 0.00 | 0.00 | 0.00 | 68 | 945.7 |
| 20260906135540 | 80 | 199 | 0.0 | 2.0 | 0.00 | 0.00 | 0.00 | 68 | 945.6 |
| 20260906135435 | 80 | 182 | 0.0 | 2.0 | 0.00 | 0.00 | 0.00 | 68 | 945.7 |
| 20260906135333 | 80 | 182 | 0.0 | 2.0 | 0.00 | 0.00 | 0.00 | 69 | 945.6 |
| 20260906135233 | 80 | 238 | 0.0 | 2.0 | 0.00 | 0.00 | 0.00 | 69 | 945.6 |
| 20260906135131 | 80 | 238 | 0.0 | 2.0 | 0.00 | 0.00 | 0.00 | 70 | 945.6 |
| 20260906135032 | 80 | 238 | 0.0 | 2.0 | 0.00 | 0.00 | 0.00 | 70 | 945.6 |
| 20260906134927 | 79 | 238 | 0.0 | 2.0 | 0.00 | 0.00 | 0.00 | 69 | 945.6 |
| 20260906134827 | 79 | 238 | 0.0 | 2.0 | 0.00 | 0.00 | 0.00 | 70 | 945.7 |
| 20260906134727 | 79 | 150 | 0.0 | 2.0 | 0.00 | 0.00 | 0.00 | 71 | 945.6 |
| 20260906134628 | 79 | 150 | 0.0 | 2.0 | 0.00 | 0.00 | 0.00 | 70 | 945.6 |
| 20260906134527 | 79 | 153 | 0.0 | 2.0 | 0.00 | 0.00 | 0.00 | 71 | 945.6 |
| 20260906134427 | 79 | 153 | 0.0 | 2.0 | 0.00 | 0.00 | 0.00 | 71 | 945.7 |
| 20260906134327 | 78 | 206 | 0.0 | 0.0 | 0.00 | 0.00 | 0.00 | 71 | 945.6 |
| 20260906134227 | 78 | 206 | 0.0 | 0.0 | 0.00 | 0.00 | 0.00 | 71 | 945.6 |
| 20260906134127 | 78 | 209 | 0.0 | 0.0 | 0.00 | 0.00 | 0.00 | 71 | 945.6 |
| 20260906134027 | 78 | 155 | 0.0 | 0.0 | 0.00 | 0.00 | 0.00 | 72 | 945.6 |
| 20260906133927 | 78 | 186 | 0.0 | 0.0 | 0.00 | 0.00 | 0.00 | 72 | 945.6 |
| 20260906133827 | 78 | 196 | 0.0 | 0.0 | 0.00 | 0.00 | 0.00 | 73 | 945.7 |
| 20260906133727 | 77 | 196 | 0.0 | 0.0 | 0.00 | 0.00 | 0.00 | 74 | 945.6 |
| 20260906133627 | 77 | 97 | 0.0 | 0.0 | 0.00 | 0.00 | 0.00 | 74 | 945.7 |
| 20260906133527 | 77 | 97 | 0.0 | 0.0 | 0.00 | 0.00 | 0.00 | 75 | 945.6 |
| 20260906133428 | 76 | 97 | 0.0 | 0.0 | 0.00 | 0.00 | 0.00 | 74 | 945.6 |
| 20260906133328 | 76 | 97 | 0.0 | 0.0 | 0.00 | 0.00 | 0.00 | 75 | 945.6 |
| 20260906133228 | 76 | 97 | 0.0 | 0.0 | 0.00 | 0.00 | 0.00 | 75 | 945.6 |
| 20260906133127 | 76 | 97 | 0.0 | 0.0 | 0.00 | 0.00 | 0.00 | 75 | 945.6 |
| 20260906133024 | 76 | 97 | 0.0 | 0.0 | 0.00 | 0.00 | 0.00 | 76 | 945.6 |
| 20260906132924 | 76 | 97 | 0.0 | 0.0 | 0.00 | 0.00 | 0.00 | 75 | 945.6 |
| 20260906132823 | 75 | 97 | 0.0 | 0.0 | 0.00 | 0.00 | 0.00 | 76 | 945.6 |
| 20260906132724 | 75 | 97 | 0.0 | 0.0 | 0.00 | 0.00 | 0.00 | 77 | 945.7 |
| 20260906132623 | 75 | 97 | 0.0 | 0.0 | 0.00 | 0.00 | 0.00 | 77 | 945.7 |
| 20260906132523 | 75 | 97 | 0.0 | 0.0 | 0.00 | 0.00 | 0.00 | 77 | 945.6 |
| 20260906132423 | 74 | 97 | 0.0 | 0.0 | 0.00 | 0.00 | 0.00 | 78 | 945.7 |
| 20260906132323 | 74 | 97 | 0.0 | 0.0 | 0.00 | 0.00 | 0.00 | 78 | 945.7 |
| 20260906132223 | 74 | 97 | 0.0 | 0.0 | 0.00 | 0.00 | 0.00 | 79 | 945.7 |
| 20260906132123 | 74 | 97 | 0.0 | 0.0 | 0.00 | 0.00 | 0.00 | 80 | 945.7 |
| 20260906132023 | 74 | 97 | 0.0 | 0.0 | 0.00 | 0.00 | 0.00 | 80 | 945.6 |
| 20260906131921 | 74 | 97 | 0.0 | 0.0 | 0.00 | 0.00 | 0.00 | 80 | 945.6 |
| 20260906131817 | 73 | 97 | 0.0 | 0.0 | 0.00 | 0.00 | 0.00 | 80 | 945.6 |
| 20260906131717 | 73 | 97 | 0.0 | 0.0 | 0.00 | 0.00 | 0.00 | 81 | 945.6 |
| 20260906131617 | 73 | 97 | 0.0 | 0.0 | 0.00 | 0.00 | 0.00 | 81 | 945.6 |
| 20260906131517 | 73 | 97 | 0.0 | 0.0 | 0.00 | 0.00 | 0.00 | 81 | 945.5 |
| 20260906131417 | 73 | 97 | 0.0 | 0.0 | 0.00 | 0.00 | 0.00 | 81 | 945.5 |
| 20260906131317 | 73 | 97 | 0.0 | 0.0 | 0.00 | 0.00 | 0.00 | 81 | 945.5 |
| 20260906131241 | 73 | 97 | 0.0 | 0.0 | 0.00 | 0.00 | 0.00 | 81 | 945.5 |
| 20260906131117 | 72 | 97 | 0.0 | 0.0 | 0.00 | 0.00 | 0.00 | 81 | 945.6 |
| 20260906131018 | 72 | 97 | 0.0 | 0.0 | 0.00 | 0.00 | 0.00 | 82 | 945.5 |
| 20260906130917 | 72 | 97 | 0.0 | 0.0 | 0.00 | 0.00 | 0.00 | 81 | 945.5 |
| 20260906130817 | 72 | 97 | 0.0 | 0.0 | 0.00 | 0.00 | 0.00 | 82 | 945.5 |
| 20260906130741 | 72 | 97 | 0.0 | 0.0 | 0.00 | 0.00 | 0.00 | 82 | 945.5 |
| 20260906130617 | 72 | 97 | 0.0 | 0.0 | 0.00 | 0.00 | 0.00 | 82 | 945.5 |
| 20260906130517 | 71 | 97 | 0.0 | 0.0 | 0.00 | 0.00 | 0.00 | 82 | 945.5 |
| 20260906130417 | 71 | 97 | 0.0 | 0.0 | 0.00 | 0.00 | 0.00 | 82 | 945.5 |
| 20260906130318 | 71 | 97 | 0.0 | 0.0 | 0.00 | 0.00 | 0.00 | 82 | 945.4 |
| 20260906130217 | 71 | 97 | 0.0 | 0.0 | 0.00 | 0.00 | 0.00 | 83 | 945.5 |
| 20260906130117 | 71 | 97 | 0.0 | 0.0 | 0.00 | 0.00 | 0.00 | 83 | 945.5 |
| 20260906130018 | 71 | 97 | 0.0 | 0.0 | 0.00 | 0.00 | 0.00 | 82 | 945.4 |
| 20260906125914 | 71 | 97 | 0.0 | 0.0 | 0.00 | 0.00 | 0.00 | 83 | 945.4 |
| 20260906125814 | 71 | 97 | 0.0 | 0.0 | 0.00 | 0.00 | 0.00 | 83 | 945.4 |
| 20260906125714 | 71 | 97 | 0.0 | 0.0 | 0.00 | 0.00 | 0.00 | 84 | 945.3 |
| 20260906125613 | 70 | 97 | 0.0 | 0.0 | 0.00 | 0.00 | 0.00 | 84 | 945.3 |
| 20260906125513 | 70 | 97 | 0.0 | 0.0 | 0.00 | 0.00 | 0.00 | 84 | 945.3 |
| 20260906125413 | 70 | 97 | 0.0 | 0.0 | 0.00 | 0.00 | 0.00 | 84 | 945.3 |
| 20260906125313 | 70 | 97 | 0.0 | 0.0 | 0.00 | 0.00 | 0.00 | 84 | 945.3 |
| 20260906125213 | 70 | 97 | 0.0 | 0.0 | 0.00 | 0.00 | 0.00 | 84 | 945.3 |
| 20260906125113 | 70 | 97 | 0.0 | 0.0 | 0.00 | 0.00 | 0.00 | 84 | 945.2 |
| 20260906125013 | 70 | 97 | 0.0 | 0.0 | 0.00 | 0.00 | 0.00 | 84 | 945.2 |
| 20260906124913 | 70 | 97 | 0.0 | 0.0 | 0.00 | 0.00 | 0.00 | 83 | 945.2 |
| 20260906124813 | 70 | 97 | 0.0 | 0.0 | 0.00 | 0.00 | 0.00 | 83 | 945.2 |
| 20260906124713 | 70 | 97 | 0.0 | 0.0 | 0.00 | 0.00 | 0.00 | 83 | 945.2 |
| 20260906124613 | 70 | 97 | 0.0 | 0.0 | 0.00 | 0.00 | 0.00 | 83 | 945.1 |
| 20260906124513 | 70 | 97 | 0.0 | 0.0 | 0.00 | 0.00 | 0.00 | 83 | 945.1 |
| 20260906124413 | 70 | 97 | 0.0 | 0.0 | 0.00 | 0.00 | 0.00 | 83 | 945.1 |
| 20260906124313 | 70 | 97 | 0.0 | 0.0 | 0.00 | 0.00 | 0.00 | 83 | 945.1 |
| 20260906124214 | 70 | 97 | 0.0 | 0.0 | 0.00 | 0.00 | 0.00 | 84 | 945.1 |
| 20260906124114 | 70 | 97 | 0.0 | 0.0 | 0.00 | 0.00 | 0.00 | 83 | 945.1 |
| 20260906124010 | 70 | 97 | 0.0 | 0.0 | 0.00 | 0.00 | 0.00 | 83 | 945.1 |
| 20260906123909 | 70 | 97 | 0.0 | 0.0 | 0.00 | 0.00 | 0.00 | 83 | 945.1 |
| 20260906123809 | 70 | 97 | 0.0 | 0.0 | 0.00 | 0.00 | 0.00 | 83 | 945.0 |
| 20260906123709 | 70 | 97 | 0.0 | 0.0 | 0.00 | 0.00 | 0.00 | 84 | 945.1 |
| 20260906123609 | 70 | 97 | 0.0 | 0.0 | 0.00 | 0.00 | 0.00 | 83 | 945.0 |
| 20260906123509 | 70 | 97 | 0.0 | 0.0 | 0.00 | 0.00 | 0.00 | 83 | 945.0 |
| 20260906123409 | 70 | 97 | 0.0 | 0.0 | 0.00 | 0.00 | 0.00 | 83 | 945.0 |
| 20260906123309 | 70 | 97 | 0.0 | 0.0 | 0.00 | 0.00 | 0.00 | 83 | 945.0 |
| 20260906123209 | 70 | 97 | 0.0 | 0.0 | 0.00 | 0.00 | 0.00 | 83 | 945.0 |
| 20260906123109 | 70 | 97 | 0.0 | 0.0 | 0.00 | 0.00 | 0.00 | 83 | 944.9 |
| 20260906123009 | 70 | 97 | 0.0 | 0.0 | 0.00 | 0.00 | 0.00 | 83 | 944.9 |
| 20260906122909 | 70 | 97 | 0.0 | 0.0 | 0.00 | 0.00 | 0.00 | 83 | 944.9 |
| 20260906122809 | 70 | 97 | 0.0 | 0.0 | 0.00 | 0.00 | 0.00 | 83 | 944.8 |
| 20260906122709 | 70 | 97 | 0.0 | 0.0 | 0.00 | 0.00 | 0.00 | 83 | 944.9 |
| 20260906122609 | 70 | 97 | 0.0 | 0.0 | 0.00 | 0.00 | 0.00 | 83 | 944.8 |
| 20260906122510 | 70 | 97 | 0.0 | 0.0 | 0.00 | 0.00 | 0.00 | 83 | 944.8 |
| 20260906122409 | 70 | 97 | 0.0 | 0.0 | 0.00 | 0.00 | 0.00 | 83 | 944.8 |
| 20260906122309 | 69 | 97 | 0.0 | 0.0 | 0.00 | 0.00 | 0.00 | 83 | 944.8 |
| 20260906122210 | 69 | 97 | 0.0 | 0.0 | 0.00 | 0.00 | 0.00 | 83 | 944.8 |
| 20260906122105 | 69 | 97 | 0.0 | 0.0 | 0.00 | 0.00 | 0.00 | 83 | 944.8 |
| 20260906122005 | 69 | 97 | 0.0 | 0.0 | 0.00 | 0.00 | 0.00 | 83 | 944.8 |
| 20260906121905 | 69 | 97 | 0.0 | 0.0 | 0.00 | 0.00 | 0.00 | 83 | 944.8 |
| 20260906121805 | 69 | 117 | 0.0 | 0.0 | 0.00 | 0.00 | 0.00 | 83 | 944.7 |
| 20260906121705 | 69 | 117 | 0.0 | 0.0 | 0.00 | 0.00 | 0.00 | 84 | 944.8 |
| 20260906121605 | 69 | 117 | 0.0 | 0.0 | 0.00 | 0.00 | 0.00 | 84 | 944.7 |
| 20260906121505 | 69 | 117 | 0.0 | 0.0 | 0.00 | 0.00 | 0.00 | 84 | 944.7 |
| 20260906121404 | 69 | 117 | 0.0 | 0.0 | 0.00 | 0.00 | 0.00 | 84 | 944.8 |
| 20260906121305 | 69 | 117 | 0.0 | 0.0 | 0.00 | 0.00 | 0.00 | 84 | 944.7 |
| 20260906121205 | 70 | 117 | 0.0 | 0.0 | 0.00 | 0.00 | 0.00 | 84 | 944.7 |
| 20260906121105 | 70 | 117 | 0.0 | 0.0 | 0.00 | 0.00 | 0.00 | 84 | 944.7 |
| 20260906121002 | 69 | 117 | 0.0 | 0.0 | 0.00 | 0.00 | 0.00 | 84 | 944.7 |
| 20260906120901 | 70 | 117 | 0.0 | 0.0 | 0.00 | 0.00 | 0.00 | 84 | 944.7 |
| 20260906120801 | 69 | 117 | 0.0 | 0.0 | 0.00 | 0.00 | 0.00 | 84 | 944.7 |
| 20260906120735 | 69 | 117 | 0.0 | 0.0 | 0.00 | 0.00 | 0.00 | 83 | 944.7 |
| 20260906120558 | 69 | 117 | 0.0 | 0.0 | 0.00 | 0.00 | 0.00 | 83 | 944.7 |
| 20260906120455 | 69 | 117 | 0.0 | 0.0 | 0.00 | 0.00 | 0.00 | 82 | 944.7 |
| 20260906120351 | 69 | 117 | 0.0 | 0.0 | 0.00 | 0.00 | 0.00 | 82 | 944.7 |
| 20260906120251 | 69 | 117 | 0.0 | 0.0 | 0.00 | 0.00 | 0.00 | 82 | 944.6 |
| 20260906120151 | 69 | 117 | 0.0 | 0.0 | 0.00 | 0.00 | 0.00 | 82 | 944.6 |
| 20260906120051 | 70 | 117 | 0.0 | 0.0 | 0.00 | 0.00 | 0.00 | 83 | 944.6 |
| 20260906115948 | 70 | 117 | 0.0 | 0.0 | 0.00 | 0.00 | 0.00 | 82 | 944.6 |
| 20260906115849 | 70 | 117 | 0.0 | 0.0 | 0.00 | 0.00 | 0.00 | 82 | 944.6 |
| 20260906115747 | 70 | 117 | 0.0 | 0.0 | 0.00 | 0.00 | 0.00 | 82 | 944.6 |
| 20260906115729 | 70 | 117 | 0.0 | 0.0 | 0.00 | 0.00 | 0.00 | 82 | 944.6 |
| 20260906115545 | 70 | 117 | 0.0 | 0.0 | 0.00 | 0.00 | 0.00 | 81 | 944.6 |
| 20260906115442 | 70 | 117 | 0.0 | 0.0 | 0.00 | 0.00 | 0.00 | 81 | 944.6 |
| 20260906115341 | 70 | 117 | 0.0 | 0.0 | 0.00 | 0.00 | 0.00 | 81 | 944.5 |
| 20260906115241 | 70 | 117 | 0.0 | 0.0 | 0.00 | 0.00 | 0.00 | 81 | 944.5 |
| 20260906115141 | 70 | 117 | 0.0 | 0.0 | 0.00 | 0.00 | 0.00 | 82 | 944.5 |
| 20260906115039 | 70 | 117 | 0.0 | 0.0 | 0.00 | 0.00 | 0.00 | 82 | 944.5 |
| 20260906114936 | 70 | 117 | 0.0 | 0.0 | 0.00 | 0.00 | 0.00 | 82 | 944.5 |
| 20260906114837 | 70 | 117 | 0.0 | 0.0 | 0.00 | 0.00 | 0.00 | 82 | 944.5 |
| 20260906114735 | 70 | 117 | 0.0 | 0.0 | 0.00 | 0.00 | 0.00 | 82 | 944.5 |
| 20260906114635 | 70 | 117 | 0.0 | 0.0 | 0.00 | 0.00 | 0.00 | 81 | 944.5 |
| 20260906114533 | 70 | 117 | 0.0 | 0.0 | 0.00 | 0.00 | 0.00 | 81 | 944.5 |
| 20260906114430 | 70 | 117 | 0.0 | 0.0 | 0.00 | 0.00 | 0.00 | 81 | 944.5 |
| 20260906114331 | 70 | 117 | 0.0 | 0.0 | 0.00 | 0.00 | 0.00 | 81 | 944.5 |
| 20260906114229 | 70 | 117 | 0.0 | 0.0 | 0.00 | 0.00 | 0.00 | 81 | 944.4 |
| 20260906114129 | 70 | 117 | 0.0 | 0.0 | 0.00 | 0.00 | 0.00 | 81 | 944.4 |
| 20260906114027 | 70 | 117 | 0.0 | 0.0 | 0.00 | 0.00 | 0.00 | 81 | 944.4 |
| 20260906113925 | 70 | 117 | 0.0 | 0.0 | 0.00 | 0.00 | 0.00 | 81 | 944.4 |
| 20260906113825 | 70 | 117 | 0.0 | 0.0 | 0.00 | 0.00 | 0.00 | 81 | 944.4 |
| 20260906113723 | 70 | 117 | 0.0 | 0.0 | 0.00 | 0.00 | 0.00 | 81 | 944.4 |
| 20260906113623 | 70 | 117 | 0.0 | 0.0 | 0.00 | 0.00 | 0.00 | 81 | 944.4 |
| 20260906113521 | 70 | 117 | 0.0 | 0.0 | 0.00 | 0.00 | 0.00 | 81 | 944.3 |
| 20260906113419 | 70 | 117 | 0.0 | 0.0 | 0.00 | 0.00 | 0.00 | 81 | 944.4 |
| 20260906113320 | 70 | 117 | 0.0 | 0.0 | 0.00 | 0.00 | 0.00 | 81 | 944.3 |
| 20260906113217 | 70 | 117 | 0.0 | 0.0 | 0.00 | 0.00 | 0.00 | 81 | 944.3 |
| 20260906113158 | 70 | 117 | 0.0 | 0.0 | 0.00 | 0.00 | 0.00 | 81 | 944.4 |
| 20260906113014 | 70 | 117 | 0.0 | 0.0 | 0.00 | 0.00 | 0.00 | 81 | 944.4 |
| 20260906112912 | 70 | 117 | 0.0 | 0.0 | 0.00 | 0.00 | 0.00 | 81 | 944.4 |
| 20260906112812 | 70 | 117 | 0.0 | 0.0 | 0.00 | 0.00 | 0.00 | 81 | 944.5 |
| 20260906112710 | 70 | 117 | 0.0 | 0.0 | 0.00 | 0.00 | 0.00 | 81 | 944.5 |
| 20260906112609 | 70 | 117 | 0.0 | 0.0 | 0.00 | 0.00 | 0.00 | 81 | 944.5 |
| 20260906112508 | 70 | 117 | 0.0 | 0.0 | 0.00 | 0.00 | 0.00 | 81 | 944.5 |
| 20260906112406 | 70 | 117 | 0.0 | 0.0 | 0.00 | 0.00 | 0.00 | 81 | 944.5 |
| 20260906112306 | 70 | 117 | 0.0 | 0.0 | 0.00 | 0.00 | 0.00 | 80 | 944.5 |
| 20260906112201 | 70 | 117 | 0.0 | 0.0 | 0.00 | 0.00 | 0.00 | 80 | 944.5 |
| 20260906112146 | 70 | 117 | 0.0 | 0.0 | 0.00 | 0.00 | 0.00 | 80 | 944.5 |
| 20260906112001 | 70 | 117 | 0.0 | 0.0 | 0.00 | 0.00 | 0.00 | 80 | 944.5 |
| 20260906111900 | 70 | 117 | 0.0 | 0.0 | 0.00 | 0.00 | 0.00 | 81 | 944.5 |
| 20260906111757 | 70 | 117 | 0.0 | 0.0 | 0.00 | 0.00 | 0.00 | 80 | 944.4 |
| 20260906111657 | 70 | 117 | 0.0 | 0.0 | 0.00 | 0.00 | 0.00 | 80 | 944.5 |
| 20260906111641 | 70 | 117 | 0.0 | 0.0 | 0.00 | 0.00 | 0.00 | 80 | 944.4 |
| 20260906111457 | 70 | 117 | 0.0 | 0.0 | 0.00 | 0.00 | 0.00 | 80 | 944.4 |
| 20260906111354 | 70 | 117 | 0.0 | 0.0 | 0.00 | 0.00 | 0.00 | 80 | 944.4 |
| 20260906111255 | 70 | 117 | 0.0 | 0.0 | 0.00 | 0.00 | 0.00 | 80 | 944.3 |
| 20260906111153 | 70 | 117 | 0.0 | 0.0 | 0.00 | 0.00 | 0.00 | 80 | 944.3 |
| 20260906111053 | 70 | 117 | 0.0 | 0.0 | 0.00 | 0.00 | 0.00 | 80 | 944.3 |
| 20260906110951 | 70 | 117 | 0.0 | 0.0 | 0.00 | 0.00 | 0.00 | 80 | 944.3 |
| 20260906110848 | 70 | 117 | 0.0 | 0.0 | 0.00 | 0.00 | 0.00 | 80 | 944.3 |
| 20260906110749 | 70 | 117 | 0.0 | 0.0 | 0.00 | 0.00 | 0.00 | 80 | 944.3 |
| 20260906110647 | 70 | 117 | 0.0 | 0.0 | 0.00 | 0.00 | 0.00 | 80 | 944.3 |
| 20260906110547 | 71 | 117 | 0.0 | 0.0 | 0.00 | 0.00 | 0.00 | 80 | 944.3 |
| 20260906110445 | 71 | 117 | 0.0 | 0.0 | 0.00 | 0.00 | 0.00 | 80 | 944.3 |
| 20260906110343 | 71 | 117 | 0.0 | 0.0 | 0.00 | 0.00 | 0.00 | 80 | 944.3 |
| 20260906110243 | 71 | 117 | 0.0 | 0.0 | 0.00 | 0.00 | 0.00 | 80 | 944.3 |
| 20260906110141 | 71 | 117 | 0.0 | 0.0 | 0.00 | 0.00 | 0.00 | 80 | 944.3 |
| 20260906110041 | 71 | 117 | 0.0 | 2.0 | 0.00 | 0.00 | 0.00 | 81 | 944.3 |
| 20260906105939 | 71 | 117 | 0.0 | 2.0 | 0.00 | 0.00 | 0.00 | 80 | 944.3 |
| 20260906105837 | 71 | 117 | 1.0 | 2.0 | 0.00 | 0.00 | 0.00 | 80 | 944.3 |
| 20260906105732 | 71 | 117 | 1.0 | 3.0 | 0.00 | 0.00 | 0.00 | 79 | 944.3 |
| 20260906105631 | 71 | 117 | 1.0 | 3.0 | 0.00 | 0.00 | 0.00 | 79 | 944.2 |
| 20260906105530 | 71 | 117 | 1.0 | 4.0 | 0.00 | 0.00 | 0.00 | 80 | 944.2 |
| 20260906105431 | 71 | 117 | 2.0 | 4.0 | 0.00 | 0.00 | 0.00 | 79 | 944.2 |
| 20260906105331 | 71 | 117 | 2.0 | 4.0 | 0.00 | 0.00 | 0.00 | 80 | 944.2 |
| 20260906105226 | 71 | 117 | 2.0 | 4.0 | 0.00 | 0.00 | 0.00 | 80 | 944.2 |
| 20260906105125 | 71 | 117 | 1.0 | 4.0 | 0.00 | 0.00 | 0.00 | 80 | 944.2 |
| 20260906105025 | 71 | 117 | 1.0 | 4.0 | 0.00 | 0.00 | 0.00 | 80 | 944.2 |
| 20260906104925 | 71 | 117 | 1.0 | 4.0 | 0.00 | 0.00 | 0.00 | 80 | 944.1 |
| 20260906104824 | 71 | 117 | 1.0 | 4.0 | 0.00 | 0.00 | 0.00 | 81 | 944.1 |
| 20260906104721 | 71 | 117 | 1.0 | 4.0 | 0.00 | 0.00 | 0.00 | 81 | 944.1 |
| 20260906104621 | 71 | 117 | 0.0 | 4.0 | 0.00 | 0.00 | 0.00 | 81 | 944.2 |
| 20260906104521 | 71 | 117 | 0.0 | 4.0 | 0.00 | 0.00 | 0.00 | 81 | 944.2 |
| 20260906104421 | 71 | 117 | 0.0 | 0.0 | 0.00 | 0.00 | 0.00 | 81 | 944.2 |
| 20260906104318 | 71 | 111 | 0.0 | 0.0 | 0.00 | 0.00 | 0.00 | 82 | 944.2 |
| 20260906104219 | 71 | 101 | 0.0 | 0.0 | 0.00 | 0.00 | 0.00 | 82 | 944.2 |
| 20260906104117 | 71 | 101 | 0.0 | 0.0 | 0.00 | 0.00 | 0.00 | 83 | 944.2 |
| 20260906104017 | 71 | 101 | 0.0 | 0.0 | 0.00 | 0.00 | 0.00 | 83 | 944.2 |
| 20260906103915 | 71 | 101 | 0.0 | 0.0 | 0.00 | 0.00 | 0.00 | 82 | 944.2 |
| 20260906103813 | 71 | 97 | 0.0 | 0.0 | 0.00 | 0.00 | 0.00 | 80 | 944.2 |
| 20260906103713 | 71 | 91 | 0.0 | 0.0 | 0.00 | 0.00 | 0.00 | 80 | 944.2 |
| 20260906103610 | 71 | 90 | 0.0 | 0.0 | 0.00 | 0.00 | 0.00 | 80 | 944.1 |
| 20260906103510 | 71 | 84 | 0.0 | 0.0 | 0.00 | 0.00 | 0.00 | 80 | 944.1 |
| 20260906103408 | 71 | 84 | 0.0 | 0.0 | 0.00 | 0.00 | 0.00 | 80 | 944.1 |
| 20260906103306 | 71 | 84 | 0.0 | 0.0 | 0.00 | 0.00 | 0.00 | 80 | 944.1 |
| 20260906103201 | 71 | 84 | 0.0 | 0.0 | 0.00 | 0.00 | 0.00 | 80 | 944.1 |
| 20260906103101 | 71 | 84 | 0.0 | 0.0 | 0.00 | 0.00 | 0.00 | 80 | 944.1 |
| 20260906102900 | 71 | 84 | 0.0 | 0.0 | 0.00 | 0.00 | 0.00 | 80 | 944.2 |
| 20260906102800 | 71 | 84 | 0.0 | 0.0 | 0.00 | 0.00 | 0.00 | 81 | 944.2 |
| 20260906102657 | 71 | 84 | 0.0 | 0.0 | 0.00 | 0.00 | 0.00 | 81 | 944.2 |
| 20260906102555 | 71 | 84 | 0.0 | 0.0 | 0.00 | 0.00 | 0.00 | 82 | 944.2 |
| 20260906102455 | 71 | 84 | 0.0 | 0.0 | 0.00 | 0.00 | 0.00 | 80 | 944.2 |
| 20260906102355 | 71 | 84 | 0.0 | 0.0 | 0.00 | 0.00 | 0.00 | 79 | 944.2 |
| 20260906102254 | 71 | 84 | 0.0 | 0.0 | 0.00 | 0.00 | 0.00 | 79 | 944.2 |
| 20260906102154 | 71 | 84 | 0.0 | 0.0 | 0.00 | 0.00 | 0.00 | 79 | 944.1 |
| 20260906102053 | 71 | 84 | 0.0 | 0.0 | 0.00 | 0.00 | 0.00 | 79 | 944.1 |
| 20260906101952 | 71 | 84 | 0.0 | 0.0 | 0.00 | 0.00 | 0.00 | 79 | 944.2 |
| 20260906101850 | 71 | 84 | 0.0 | 0.0 | 0.00 | 0.00 | 0.00 | 79 | 944.2 |
| 20260906101748 | 71 | 84 | 0.0 | 0.0 | 0.00 | 0.00 | 0.00 | 79 | 944.1 |
| 20260906101648 | 71 | 84 | 0.0 | 0.0 | 0.00 | 0.00 | 0.00 | 79 | 944.2 |
| 20260906101547 | 71 | 84 | 0.0 | 0.0 | 0.00 | 0.00 | 0.00 | 79 | 944.2 |
| 20260906101446 | 71 | 84 | 0.0 | 0.0 | 0.00 | 0.00 | 0.00 | 79 | 944.2 |
| 20260906101344 | 71 | 84 | 0.0 | 0.0 | 0.00 | 0.00 | 0.00 | 79 | 944.2 |
| 20260906101242 | 71 | 84 | 0.0 | 2.0 | 0.00 | 0.00 | 0.00 | 79 | 944.2 |
| 20260906101142 | 71 | 86 | 0.0 | 2.0 | 0.00 | 0.00 | 0.00 | 79 | 944.2 |
| 20260906101041 | 71 | 69 | 0.0 | 2.0 | 0.00 | 0.00 | 0.00 | 80 | 944.2 |
| 20260906100939 | 71 | 69 | 0.0 | 2.0 | 0.00 | 0.00 | 0.00 | 80 | 944.1 |
| 20260906100839 | 71 | 97 | 0.0 | 2.0 | 0.00 | 0.00 | 0.00 | 80 | 944.2 |
| 20260906100736 | 71 | 97 | 0.0 | 2.0 | 0.00 | 0.00 | 0.00 | 80 | 944.2 |
| 20260906100637 | 71 | 97 | 0.0 | 2.0 | 0.00 | 0.00 | 0.00 | 81 | 944.2 |
| 20260906100535 | 71 | 97 | 0.0 | 2.0 | 0.00 | 0.00 | 0.00 | 81 | 944.1 |
| 20260906100435 | 71 | 97 | 0.0 | 2.0 | 0.00 | 0.00 | 0.00 | 81 | 944.0 |
| 20260906100333 | 71 | 97 | 0.0 | 2.0 | 0.00 | 0.00 | 0.00 | 81 | 944.0 |
| 20260906100231 | 71 | 97 | 0.0 | 2.0 | 0.00 | 0.00 | 0.00 | 81 | 943.9 |
| 20260906100129 | 71 | 97 | 0.0 | 2.0 | 0.00 | 0.00 | 0.00 | 81 | 944.0 |
| 20260906100029 | 71 | 97 | 0.0 | 2.0 | 0.00 | 0.00 | 0.00 | 81 | 944.0 |
| 20260906095929 | 71 | 97 | 0.0 | 0.0 | 0.00 | 0.00 | 0.00 | 81 | 944.0 |
| 20260906095827 | 71 | 97 | 0.0 | 0.0 | 0.00 | 0.00 | 0.00 | 81 | 943.9 |
| 20260906095725 | 71 | 97 | 0.0 | 0.0 | 0.00 | 0.00 | 0.00 | 81 | 944.0 |
| 20260906095625 | 71 | 97 | 0.0 | 0.0 | 0.00 | 0.00 | 0.00 | 81 | 944.0 |
| 20260906095523 | 71 | 97 | 0.0 | 0.0 | 0.00 | 0.00 | 0.00 | 81 | 944.0 |
| 20260906095423 | 71 | 97 | 0.0 | 0.0 | 0.00 | 0.00 | 0.00 | 80 | 943.9 |
| 20260906095321 | 71 | 97 | 0.0 | 0.0 | 0.00 | 0.00 | 0.00 | 79 | 943.9 |
| 20260906095218 | 71 | 97 | 0.0 | 0.0 | 0.00 | 0.00 | 0.00 | 80 | 943.9 |
| 20260906095119 | 71 | 97 | 0.0 | 0.0 | 0.00 | 0.00 | 0.00 | 79 | 943.9 |
| 20260906095017 | 71 | 97 | 0.0 | 0.0 | 0.00 | 0.00 | 0.00 | 79 | 944.0 |
| 20260906094917 | 71 | 97 | 0.0 | 0.0 | 0.00 | 0.00 | 0.00 | 79 | 943.9 |
| 20260906094815 | 71 | 97 | 0.0 | 0.0 | 0.00 | 0.00 | 0.00 | 79 | 943.9 |
| 20260906094712 | 71 | 97 | 0.0 | 0.0 | 0.00 | 0.00 | 0.00 | 79 | 943.9 |
| 20260906094613 | 71 | 97 | 0.0 | 0.0 | 0.00 | 0.00 | 0.00 | 79 | 943.9 |
| 20260906094511 | 71 | 97 | 0.0 | 0.0 | 0.00 | 0.00 | 0.00 | 79 | 943.9 |
| 20260906094411 | 71 | 97 | 0.0 | 0.0 | 0.00 | 0.00 | 0.00 | 79 | 943.9 |
| 20260906094309 | 71 | 97 | 0.0 | 0.0 | 0.00 | 0.00 | 0.00 | 80 | 943.9 |
| 20260906094206 | 71 | 97 | 0.0 | 0.0 | 0.00 | 0.00 | 0.00 | 80 | 943.9 |
| 20260906094107 | 71 | 97 | 0.0 | 0.0 | 0.00 | 0.00 | 0.00 | 80 | 943.9 |
| 20260906094005 | 71 | 97 | 0.0 | 0.0 | 0.00 | 0.00 | 0.00 | 80 | 943.9 |
| 20260906093905 | 71 | 97 | 0.0 | 1.0 | 0.00 | 0.00 | 0.00 | 80 | 943.9 |
| 20260906093803 | 71 | 97 | 0.0 | 1.0 | 0.00 | 0.00 | 0.00 | 80 | 943.9 |
| 20260906093700 | 71 | 97 | 0.0 | 1.0 | 0.00 | 0.00 | 0.00 | 80 | 943.9 |
| 20260906093556 | 71 | 97 | 0.0 | 1.0 | 0.00 | 0.00 | 0.00 | 80 | 943.9 |
| 20260906093355 | 71 | 97 | 0.0 | 1.0 | 0.00 | 0.00 | 0.00 | 80 | 944.0 |
| 20260906093255 | 71 | 97 | 0.0 | 1.0 | 0.00 | 0.00 | 0.00 | 81 | 943.9 |
| 20260906093155 | 71 | 97 | 0.0 | 1.0 | 0.00 | 0.00 | 0.00 | 81 | 943.9 |
| 20260906093055 | 71 | 97 | 0.0 | 1.0 | 0.00 | 0.00 | 0.00 | 82 | 944.0 |
| 20260906092853 | 71 | 97 | 0.0 | 1.0 | 0.00 | 0.00 | 0.00 | 79 | 944.0 |
| 20260906092751 | 71 | 97 | 0.0 | 1.0 | 0.00 | 0.00 | 0.00 | 78 | 944.0 |
| 20260906092649 | 71 | 97 | 0.0 | 2.0 | 0.00 | 0.00 | 0.00 | 78 | 944.0 |
| 20260906092549 | 71 | 97 | 0.0 | 2.0 | 0.00 | 0.00 | 0.00 | 78 | 944.0 |
| 20260906092347 | 71 | 97 | 1.0 | 2.0 | 0.00 | 0.00 | 0.00 | 79 | 943.9 |
| 20260906092245 | 71 | 97 | 1.0 | 2.0 | 0.00 | 0.00 | 0.00 | 79 | 943.9 |
| 20260906092143 | 71 | 97 | 1.0 | 2.0 | 0.00 | 0.00 | 0.00 | 79 | 943.9 |
| 20260906092043 | 71 | 97 | 1.0 | 2.0 | 0.00 | 0.00 | 0.00 | 79 | 943.9 |
| 20260906091841 | 71 | 97 | 1.0 | 2.0 | 0.00 | 0.00 | 0.00 | 79 | 943.9 |
| 20260906091739 | 71 | 97 | 0.0 | 2.0 | 0.00 | 0.00 | 0.00 | 79 | 943.9 |
| 20260906091637 | 71 | 97 | 0.0 | 2.0 | 0.00 | 0.00 | 0.00 | 79 | 943.9 |
| 20260906091537 | 71 | 97 | 0.0 | 2.0 | 0.00 | 0.00 | 0.00 | 79 | 943.8 |
| 20260906091435 | 71 | 97 | 0.0 | 2.0 | 0.00 | 0.00 | 0.00 | 78 | 943.8 |
| 20260906091335 | 71 | 97 | 0.0 | 2.0 | 0.00 | 0.00 | 0.00 | 77 | 943.9 |
| 20260906091233 | 71 | 110 | 0.0 | 0.0 | 0.00 | 0.00 | 0.00 | 77 | 943.8 |
| 20260906091131 | 71 | 110 | 0.0 | 0.0 | 0.00 | 0.00 | 0.00 | 77 | 943.9 |
| 20260906091031 | 71 | 125 | 0.0 | 0.0 | 0.00 | 0.00 | 0.00 | 77 | 943.9 |
| 20260906090929 | 71 | 125 | 0.0 | 0.0 | 0.00 | 0.00 | 0.00 | 77 | 943.9 |
| 20260906090829 | 71 | 125 | 0.0 | 0.0 | 0.00 | 0.00 | 0.00 | 77 | 943.9 |
| 20260906090727 | 71 | 125 | 0.0 | 0.0 | 0.00 | 0.00 | 0.00 | 77 | 943.9 |
| 20260906090624 | 71 | 125 | 0.0 | 0.0 | 0.00 | 0.00 | 0.00 | 77 | 943.9 |
| 20260906090520 | 71 | 125 | 0.0 | 0.0 | 0.00 | 0.00 | 0.00 | 77 | 943.9 |
| 20260906090418 | 71 | 125 | 0.0 | 0.0 | 0.00 | 0.00 | 0.00 | 77 | 943.9 |
| 20260906090318 | 72 | 125 | 0.0 | 0.0 | 0.00 | 0.00 | 0.00 | 77 | 943.9 |
| 20260906090216 | 72 | 125 | 0.0 | 0.0 | 0.00 | 0.00 | 0.00 | 77 | 943.9 |
| 20260906090114 | 72 | 125 | 0.0 | 0.0 | 0.00 | 0.00 | 0.00 | 77 | 943.8 |
| 20260906090011 | 72 | 125 | 0.0 | 0.0 | 0.00 | 0.00 | 0.00 | 77 | 943.8 |
| 20260906085909 | 72 | 125 | 0.0 | 0.0 | 0.00 | 0.00 | 0.00 | 77 | 943.8 |
| 20260906085809 | 72 | 125 | 0.0 | 0.0 | 0.00 | 0.00 | 0.00 | 77 | 943.8 |
| 20260906085709 | 72 | 125 | 0.0 | 0.0 | 0.00 | 0.00 | 0.00 | 78 | 943.8 |
| 20260906085608 | 72 | 125 | 0.0 | 0.0 | 0.00 | 0.00 | 0.00 | 78 | 943.8 |
| 20260906085508 | 72 | 125 | 0.0 | 0.0 | 0.00 | 0.00 | 0.00 | 78 | 943.7 |
| 20260906085406 | 72 | 125 | 0.0 | 0.0 | 0.00 | 0.00 | 0.00 | 77 | 943.8 |
| 20260906085307 | 72 | 125 | 0.0 | 0.0 | 0.00 | 0.00 | 0.00 | 77 | 943.8 |
| 20260906085205 | 72 | 125 | 0.0 | 0.0 | 0.00 | 0.00 | 0.00 | 76 | 943.8 |
| 20260906085102 | 72 | 125 | 0.0 | 0.0 | 0.00 | 0.00 | 0.00 | 76 | 943.8 |
| 20260906085025 | 72 | 125 | 0.0 | 0.0 | 0.00 | 0.00 | 0.00 | 76 | 943.8 |
| 20260906084857 | 72 | 125 | 0.0 | 0.0 | 0.00 | 0.00 | 0.00 | 76 | 943.8 |
| 20260906084757 | 72 | 125 | 0.0 | 0.0 | 0.00 | 0.00 | 0.00 | 76 | 943.8 |
| 20260906084657 | 72 | 125 | 0.0 | 0.0 | 0.00 | 0.00 | 0.00 | 76 | 943.8 |
| 20260906084556 | 72 | 125 | 0.0 | 0.0 | 0.00 | 0.00 | 0.00 | 76 | 943.8 |
| 20260906084453 | 72 | 125 | 0.0 | 0.0 | 0.00 | 0.00 | 0.00 | 77 | 943.8 |
| 20260906084351 | 72 | 125 | 0.0 | 0.0 | 0.00 | 0.00 | 0.00 | 77 | 943.8 |
| 20260906084251 | 72 | 125 | 0.0 | 0.0 | 0.00 | 0.00 | 0.00 | 75 | 943.8 |
| 20260906084151 | 72 | 125 | 0.0 | 0.0 | 0.00 | 0.00 | 0.00 | 75 | 943.8 |
| 20260906084050 | 72 | 125 | 0.0 | 0.0 | 0.00 | 0.00 | 0.00 | 74 | 943.8 |
| 20260906084012 | 72 | 125 | 0.0 | 0.0 | 0.00 | 0.00 | 0.00 | 74 | 943.8 |
| 20260906083849 | 72 | 125 | 0.0 | 0.0 | 0.00 | 0.00 | 0.00 | 74 | 943.8 |
| 20260906083749 | 72 | 125 | 0.0 | 0.0 | 0.00 | 0.00 | 0.00 | 74 | 943.8 |
| 20260906083646 | 72 | 125 | 0.0 | 0.0 | 0.00 | 0.00 | 0.00 | 74 | 943.8 |
| 20260906083544 | 72 | 125 | 0.0 | 0.0 | 0.00 | 0.00 | 0.00 | 74 | 943.8 |
| 20260906083444 | 72 | 125 | 0.0 | 0.0 | 0.00 | 0.00 | 0.00 | 74 | 943.8 |
| 20260906083342 | 72 | 125 | 0.0 | 0.0 | 0.00 | 0.00 | 0.00 | 74 | 943.8 |
| 20260906083242 | 73 | 125 | 0.0 | 1.0 | 0.00 | 0.00 | 0.00 | 74 | 943.7 |
| 20260906083140 | 73 | 125 | 0.0 | 1.0 | 0.00 | 0.00 | 0.00 | 74 | 943.7 |
| 20260906083038 | 73 | 125 | 0.0 | 1.0 | 0.00 | 0.00 | 0.00 | 74 | 943.7 |
| 20260906082933 | 73 | 125 | 0.0 | 1.0 | 0.00 | 0.00 | 0.00 | 74 | 943.7 |
| 20260906082832 | 73 | 125 | 0.0 | 1.0 | 0.00 | 0.00 | 0.00 | 74 | 943.7 |
| 20260906082732 | 73 | 125 | 0.0 | 1.0 | 0.00 | 0.00 | 0.00 | 74 | 943.6 |
| 20260906082632 | 73 | 125 | 0.0 | 1.0 | 0.00 | 0.00 | 0.00 | 74 | 943.6 |
| 20260906082532 | 73 | 125 | 0.0 | 1.0 | 0.00 | 0.00 | 0.00 | 74 | 943.6 |
| 20260906082433 | 73 | 125 | 0.0 | 1.0 | 0.00 | 0.00 | 0.00 | 75 | 943.7 |
| 20260906082330 | 73 | 125 | 0.0 | 1.0 | 0.00 | 0.00 | 0.00 | 74 | 943.7 |
| 20260906082228 | 73 | 125 | 0.0 | 1.0 | 0.00 | 0.00 | 0.00 | 74 | 943.7 |
| 20260906082128 | 73 | 125 | 0.0 | 1.0 | 0.00 | 0.00 | 0.00 | 74 | 943.7 |
| 20260906082026 | 73 | 125 | 0.0 | 2.0 | 0.00 | 0.00 | 0.00 | 73 | 943.7 |
| 20260906081924 | 73 | 125 | 0.0 | 2.0 | 0.00 | 0.00 | 0.00 | 73 | 943.7 |
| 20260906081824 | 73 | 125 | 1.0 | 3.0 | 0.00 | 0.00 | 0.00 | 73 | 943.7 |
| 20260906081722 | 73 | 125 | 1.0 | 3.0 | 0.00 | 0.00 | 0.00 | 73 | 943.7 |
| 20260906081622 | 73 | 125 | 1.0 | 3.0 | 0.00 | 0.00 | 0.00 | 73 | 943.6 |
| 20260906081520 | 73 | 125 | 1.0 | 3.0 | 0.00 | 0.00 | 0.00 | 73 | 943.7 |
| 20260906081442 | 73 | 125 | 1.0 | 3.0 | 0.00 | 0.00 | 0.00 | 73 | 943.6 |
| 20260906081314 | 73 | 125 | 1.0 | 3.0 | 0.00 | 0.00 | 0.00 | 73 | 943.6 |
| 20260906081214 | 73 | 125 | 2.0 | 3.0 | 0.00 | 0.00 | 0.00 | 73 | 943.6 |
| 20260906081115 | 73 | 125 | 2.0 | 3.0 | 0.00 | 0.00 | 0.00 | 74 | 943.6 |
| 20260906081015 | 73 | 125 | 2.0 | 3.0 | 0.00 | 0.00 | 0.00 | 74 | 943.7 |
| 20260906080912 | 73 | 125 | 2.0 | 3.0 | 0.00 | 0.00 | 0.00 | 75 | 943.6 |
| 20260906080813 | 73 | 125 | 2.0 | 3.0 | 0.00 | 0.00 | 0.00 | 75 | 943.7 |
| 20260906080713 | 73 | 125 | 2.0 | 3.0 | 0.00 | 0.00 | 0.00 | 76 | 943.7 |
| 20260906080610 | 73 | 125 | 2.0 | 3.0 | 0.00 | 0.00 | 0.00 | 74 | 943.6 |
| 20260906080508 | 73 | 131 | 2.0 | 3.0 | 0.00 | 0.00 | 0.00 | 73 | 943.7 |
| 20260906080404 | 73 | 131 | 2.0 | 3.0 | 0.00 | 0.00 | 0.00 | 73 | 943.7 |
| 20260906080304 | 73 | 138 | 1.0 | 3.0 | 0.00 | 0.00 | 0.00 | 73 | 943.7 |
| 20260906080204 | 74 | 132 | 1.0 | 3.0 | 0.00 | 0.00 | 0.00 | 74 | 943.6 |
| 20260906080105 | 74 | 132 | 1.0 | 3.0 | 0.00 | 0.00 | 0.00 | 73 | 943.7 |
| 20260906080002 | 74 | 128 | 1.0 | 3.0 | 0.00 | 0.00 | 0.00 | 74 | 943.7 |
| 20260906075856 | 74 | 132 | 0.0 | 3.0 | 0.00 | 0.00 | 0.00 | 73 | 943.7 |
| 20260906075756 | 74 | 109 | 0.0 | 2.0 | 0.00 | 0.00 | 0.00 | 71 | 943.7 |
| 20260906075656 | 74 | 109 | 0.0 | 2.0 | 0.00 | 0.00 | 0.00 | 71 | 943.8 |
| 20260906075556 | 74 | 109 | 0.0 | 2.0 | 0.00 | 0.00 | 0.00 | 71 | 943.8 |
| 20260906075456 | 74 | 109 | 0.0 | 1.0 | 0.00 | 0.00 | 0.00 | 71 | 943.8 |
| 20260906075352 | 74 | 109 | 0.0 | 1.0 | 0.00 | 0.00 | 0.00 | 71 | 943.8 |
| 20260906075250 | 74 | 109 | 0.0 | 1.0 | 0.00 | 0.00 | 0.00 | 71 | 943.8 |
| 20260906075150 | 74 | 109 | 0.0 | 1.0 | 0.00 | 0.00 | 0.00 | 70 | 943.8 |
| 20260906075050 | 74 | 109 | 0.0 | 1.0 | 0.00 | 0.00 | 0.00 | 70 | 943.8 |
| 20260906074950 | 74 | 109 | 0.0 | 1.0 | 0.00 | 0.00 | 0.00 | 70 | 943.8 |
| 20260906074844 | 74 | 109 | 0.0 | 1.0 | 0.00 | 0.00 | 0.00 | 70 | 943.8 |
| 20260906074744 | 74 | 109 | 0.0 | 1.0 | 0.00 | 0.00 | 0.00 | 70 | 943.8 |
| 20260906074644 | 74 | 109 | 0.0 | 1.0 | 0.00 | 0.00 | 0.00 | 70 | 943.8 |
| 20260906074544 | 74 | 109 | 0.0 | 2.0 | 0.00 | 0.00 | 0.00 | 70 | 943.9 |
| 20260906074444 | 74 | 109 | 0.0 | 2.0 | 0.00 | 0.00 | 0.00 | 71 | 943.8 |
| 20260906074341 | 74 | 109 | 0.0 | 2.0 | 0.00 | 0.00 | 0.00 | 70 | 943.8 |
| 20260906074239 | 74 | 109 | 1.0 | 3.0 | 0.00 | 0.00 | 0.00 | 70 | 943.9 |
| 20260906074139 | 74 | 109 | 1.0 | 3.0 | 0.00 | 0.00 | 0.00 | 70 | 943.9 |
| 20260906074039 | 74 | 109 | 1.0 | 3.0 | 0.00 | 0.00 | 0.00 | 70 | 943.9 |
| 20260906073938 | 74 | 109 | 1.0 | 3.0 | 0.00 | 0.00 | 0.00 | 70 | 944.0 |
| 20260906073838 | 74 | 109 | 1.0 | 3.0 | 0.00 | 0.00 | 0.00 | 70 | 943.9 |
| 20260906073736 | 74 | 109 | 2.0 | 4.0 | 0.00 | 0.00 | 0.00 | 70 | 943.9 |
| 20260906073636 | 74 | 109 | 2.0 | 4.0 | 0.00 | 0.00 | 0.00 | 70 | 943.9 |
| 20260906073535 | 74 | 109 | 2.0 | 4.0 | 0.00 | 0.00 | 0.00 | 70 | 944.0 |
| 20260906073432 | 74 | 109 | 2.0 | 4.0 | 0.00 | 0.00 | 0.00 | 70 | 943.9 |
| 20260906073331 | 74 | 109 | 2.0 | 4.0 | 0.00 | 0.00 | 0.00 | 70 | 944.0 |
| 20260906073231 | 74 | 96 | 2.0 | 4.0 | 0.00 | 0.00 | 0.00 | 70 | 944.0 |
| 20260906073131 | 74 | 99 | 2.0 | 4.0 | 0.00 | 0.00 | 0.00 | 70 | 944.1 |
| 20260906073029 | 74 | 111 | 2.0 | 4.0 | 0.00 | 0.00 | 0.00 | 70 | 944.1 |
| 20260906072926 | 74 | 106 | 2.0 | 4.0 | 0.00 | 0.00 | 0.00 | 70 | 944.1 |
| 20260906072823 | 74 | 94 | 2.0 | 4.0 | 0.00 | 0.00 | 0.00 | 70 | 944.1 |
| 20260906072720 | 74 | 98 | 2.0 | 4.0 | 0.00 | 0.00 | 0.00 | 70 | 944.1 |
| 20260906072621 | 74 | 97 | 2.0 | 4.0 | 0.00 | 0.00 | 0.00 | 71 | 944.1 |
| 20260906072521 | 74 | 103 | 2.0 | 4.0 | 0.00 | 0.00 | 0.00 | 72 | 944.1 |
| 20260906072421 | 74 | 96 | 2.0 | 3.0 | 0.00 | 0.00 | 0.00 | 73 | 944.1 |
| 20260906072314 | 74 | 106 | 2.0 | 3.0 | 0.00 | 0.00 | 0.00 | 73 | 944.1 |
| 20260906072214 | 74 | 96 | 2.0 | 3.0 | 0.00 | 0.00 | 0.00 | 73 | 944.2 |
| 20260906072114 | 74 | 96 | 2.0 | 3.0 | 0.00 | 0.00 | 0.00 | 72 | 944.2 |
| 20260906072014 | 74 | 105 | 2.0 | 3.0 | 0.00 | 0.00 | 0.00 | 71 | 944.2 |
| 20260906071914 | 74 | 113 | 1.0 | 3.0 | 0.00 | 0.00 | 0.00 | 71 | 944.2 |
| 20260906071810 | 74 | 113 | 1.0 | 3.0 | 0.00 | 0.00 | 0.00 | 71 | 944.2 |
| 20260906071710 | 74 | 106 | 1.0 | 3.0 | 0.00 | 0.00 | 0.00 | 71 | 944.2 |
| 20260906071610 | 74 | 101 | 1.0 | 3.0 | 0.00 | 0.00 | 0.00 | 71 | 944.2 |
| 20260906071510 | 74 | 112 | 1.0 | 3.0 | 0.00 | 0.00 | 0.00 | 71 | 944.2 |
| 20260906071408 | 74 | 112 | 0.0 | 2.0 | 0.00 | 0.00 | 0.00 | 71 | 944.2 |
| 20260906071304 | 74 | 99 | 0.0 | 2.0 | 0.00 | 0.00 | 0.00 | 71 | 944.2 |
| 20260906071202 | 74 | 111 | 0.0 | 2.0 | 0.00 | 0.00 | 0.00 | 71 | 944.3 |
| 20260906071102 | 74 | 175 | 0.0 | 0.0 | 0.00 | 0.00 | 0.00 | 71 | 944.2 |
| 20260906071002 | 74 | 242 | 0.0 | 0.0 | 0.00 | 0.00 | 0.00 | 69 | 944.2 |
| 20260906070902 | 74 | 242 | 0.0 | 0.0 | 0.00 | 0.00 | 0.00 | 69 | 944.2 |
| 20260906070758 | 74 | 242 | 0.0 | 0.0 | 0.00 | 0.00 | 0.00 | 69 | 944.2 |
| 20260906070656 | 74 | 242 | 0.0 | 0.0 | 0.00 | 0.00 | 0.00 | 69 | 944.2 |
| 20260906070556 | 74 | 242 | 0.0 | 0.0 | 0.00 | 0.00 | 0.00 | 68 | 944.2 |
| 20260906070456 | 75 | 242 | 0.0 | 0.0 | 0.00 | 0.00 | 0.00 | 69 | 944.3 |
| 20260906070356 | 75 | 242 | 0.0 | 2.0 | 0.00 | 0.00 | 0.00 | 68 | 944.3 |
| 20260906070254 | 75 | 242 | 0.0 | 2.0 | 0.00 | 0.00 | 0.00 | 68 | 944.2 |
| 20260906070154 | 75 | 242 | 0.0 | 2.0 | 0.00 | 0.00 | 0.00 | 68 | 944.3 |
| 20260906070054 | 75 | 242 | 1.0 | 2.0 | 0.00 | 0.00 | 0.00 | 68 | 944.3 |
| 20260906065952 | 75 | 242 | 1.0 | 2.0 | 0.00 | 0.00 | 0.00 | 68 | 944.2 |
| 20260906065850 | 75 | 221 | 1.0 | 3.0 | 0.00 | 0.00 | 0.00 | 68 | 944.2 |
| 20260906065813 | 75 | 221 | 1.0 | 3.0 | 0.00 | 0.00 | 0.00 | 67 | 944.2 |
| 20260906065645 | 76 | 95 | 1.0 | 3.0 | 0.00 | 0.00 | 0.00 | 67 | 944.2 |
| 20260906065544 | 76 | 95 | 2.0 | 3.0 | 0.00 | 0.00 | 0.00 | 67 | 944.2 |
| 20260906065444 | 76 | 95 | 2.0 | 3.0 | 0.00 | 0.00 | 0.00 | 67 | 944.2 |
| 20260906065344 | 76 | 95 | 2.0 | 3.0 | 0.00 | 0.00 | 0.00 | 66 | 944.2 |
| 20260906065242 | 76 | 95 | 2.0 | 3.0 | 0.00 | 0.00 | 0.00 | 67 | 944.3 |
| 20260906065142 | 76 | 95 | 2.0 | 3.0 | 0.00 | 0.00 | 0.00 | 67 | 944.3 |
| 20260906065042 | 76 | 95 | 2.0 | 3.0 | 0.00 | 0.00 | 0.00 | 67 | 944.3 |
| 20260906064940 | 76 | 95 | 2.0 | 4.0 | 0.00 | 0.00 | 0.00 | 66 | 944.3 |
| 20260906064838 | 76 | 95 | 2.0 | 4.0 | 0.00 | 0.00 | 0.00 | 66 | 944.3 |
| 20260906064735 | 76 | 103 | 2.0 | 4.0 | 0.00 | 0.00 | 0.00 | 66 | 944.3 |
| 20260906064633 | 76 | 102 | 2.0 | 4.0 | 0.00 | 0.00 | 0.00 | 66 | 944.3 |
| 20260906064532 | 76 | 111 | 2.0 | 4.0 | 0.00 | 0.00 | 0.00 | 66 | 944.3 |
| 20260906064432 | 76 | 100 | 2.0 | 4.0 | 0.00 | 0.00 | 0.00 | 67 | 944.3 |
| 20260906064332 | 75 | 105 | 2.0 | 4.0 | 0.00 | 0.00 | 0.00 | 67 | 944.3 |
| 20260906064227 | 75 | 96 | 2.0 | 4.0 | 0.00 | 0.00 | 0.00 | 67 | 944.3 |
| 20260906064127 | 75 | 103 | 2.0 | 4.0 | 0.00 | 0.00 | 0.00 | 67 | 944.4 |
| 20260906064026 | 75 | 102 | 2.0 | 4.0 | 0.00 | 0.00 | 0.00 | 68 | 944.4 |
| 20260906063926 | 75 | 107 | 1.0 | 4.0 | 0.00 | 0.00 | 0.00 | 68 | 944.3 |
| 20260906063826 | 75 | 94 | 1.0 | 4.0 | 0.00 | 0.00 | 0.00 | 68 | 944.3 |
| 20260906063721 | 75 | 101 | 1.0 | 4.0 | 0.00 | 0.00 | 0.00 | 68 | 944.3 |
| 20260906063621 | 75 | 111 | 0.0 | 4.0 | 0.00 | 0.00 | 0.00 | 69 | 944.4 |
| 20260906063521 | 75 | 111 | 0.0 | 3.0 | 0.00 | 0.00 | 0.00 | 69 | 944.3 |
| 20260906063421 | 75 | 104 | 0.0 | 2.0 | 0.00 | 0.00 | 0.00 | 69 | 944.4 |
| 20260906063320 | 75 | 111 | 0.0 | 2.0 | 0.00 | 0.00 | 0.00 | 71 | 944.4 |
| 20260906063242 | 75 | 142 | 0.0 | 2.0 | 0.00 | 0.00 | 0.00 | 69 | 944.4 |
| 20260906063119 | 75 | 142 | 0.0 | 2.0 | 0.00 | 0.00 | 0.00 | 67 | 944.5 |
| 20260906063019 | 75 | 142 | 1.0 | 2.0 | 0.00 | 0.00 | 0.00 | 67 | 944.5 |
| 20260906062916 | 75 | 142 | 1.0 | 2.0 | 0.00 | 0.00 | 0.00 | 68 | 944.5 |
| 20260906062815 | 75 | 132 | 1.0 | 2.0 | 0.00 | 0.00 | 0.00 | 67 | 944.5 |
| 20260906062710 | 75 | 139 | 1.0 | 3.0 | 0.00 | 0.00 | 0.00 | 67 | 944.5 |
| 20260906062608 | 75 | 150 | 1.0 | 3.0 | 0.00 | 0.00 | 0.00 | 67 | 944.5 |
| 20260906062508 | 75 | 157 | 1.0 | 4.0 | 0.00 | 0.00 | 0.00 | 67 | 944.5 |
| 20260906062408 | 75 | 138 | 1.0 | 4.0 | 0.00 | 0.00 | 0.00 | 67 | 944.5 |
| 20260906062308 | 75 | 150 | 1.0 | 4.0 | 0.00 | 0.00 | 0.00 | 67 | 944.5 |
| 20260906062206 | 75 | 150 | 1.0 | 4.0 | 0.00 | 0.00 | 0.00 | 68 | 944.5 |
| 20260906062106 | 75 | 142 | 1.0 | 4.0 | 0.00 | 0.00 | 0.00 | 68 | 944.6 |
| 20260906062006 | 75 | 150 | 1.0 | 4.0 | 0.00 | 0.00 | 0.00 | 68 | 944.6 |
| 20260906061904 | 75 | 150 | 1.0 | 4.0 | 0.00 | 0.00 | 0.00 | 69 | 944.6 |
| 20260906061802 | 75 | 144 | 1.0 | 4.0 | 0.00 | 0.00 | 0.00 | 69 | 944.6 |
| 20260906061658 | 76 | 141 | 1.0 | 4.0 | 0.00 | 0.00 | 0.00 | 69 | 944.6 |
| 20260906061558 | 76 | 136 | 1.0 | 4.0 | 0.00 | 0.00 | 0.00 | 68 | 944.6 |
| 20260906061458 | 76 | 118 | 0.0 | 4.0 | 0.00 | 0.00 | 0.00 | 68 | 944.6 |
| 20260906061358 | 76 | 131 | 0.0 | 2.0 | 0.00 | 0.00 | 0.00 | 69 | 944.6 |
| 20260906061256 | 76 | 104 | 0.0 | 0.0 | 0.00 | 0.00 | 0.00 | 68 | 944.6 |
| 20260906061152 | 76 | 104 | 0.0 | 0.0 | 0.00 | 0.00 | 0.00 | 68 | 944.6 |
| 20260906061050 | 76 | 104 | 0.0 | 0.0 | 0.00 | 0.00 | 0.00 | 68 | 944.6 |
| 20260906060950 | 76 | 104 | 0.0 | 0.0 | 0.00 | 0.00 | 0.00 | 68 | 944.6 |
| 20260906060850 | 76 | 104 | 0.0 | 0.0 | 0.00 | 0.00 | 0.00 | 67 | 944.6 |
| 20260906060750 | 76 | 104 | 0.0 | 0.0 | 0.00 | 0.00 | 0.00 | 66 | 944.6 |
| 20260906060650 | 76 | 104 | 0.0 | 0.0 | 0.00 | 0.00 | 0.00 | 66 | 944.6 |
| 20260906060548 | 76 | 104 | 0.0 | 0.0 | 0.00 | 0.00 | 0.00 | 65 | 944.7 |
| 20260906060448 | 76 | 104 | 0.0 | 0.0 | 0.00 | 0.00 | 0.00 | 66 | 944.6 |
| 20260906060346 | 76 | 104 | 0.0 | 0.0 | 0.00 | 0.00 | 0.00 | 64 | 944.6 |
| 20260906060244 | 76 | 104 | 0.0 | 0.0 | 0.00 | 0.00 | 0.00 | 64 | 944.6 |
| 20260906060144 | 77 | 104 | 0.0 | 0.0 | 0.00 | 0.00 | 0.00 | 64 | 944.6 |
| 20260906060042 | 77 | 104 | 0.0 | 0.0 | 0.00 | 0.00 | 0.00 | 64 | 944.5 |
| 20260906055942 | 77 | 104 | 0.0 | 0.0 | 0.00 | 0.00 | 0.00 | 64 | 944.5 |
| 20260906055840 | 77 | 104 | 0.0 | 0.0 | 0.00 | 0.00 | 0.00 | 64 | 944.6 |
| 20260906055738 | 77 | 104 | 0.0 | 0.0 | 0.00 | 0.00 | 0.00 | 65 | 944.6 |
| 20260906055634 | 77 | 104 | 0.0 | 0.0 | 0.00 | 0.00 | 0.00 | 65 | 944.6 |
| 20260906055532 | 77 | 104 | 0.0 | 1.0 | 0.00 | 0.00 | 0.00 | 63 | 944.6 |
| 20260906055432 | 77 | 104 | 0.0 | 1.0 | 0.00 | 0.00 | 0.00 | 63 | 944.6 |
| 20260906055332 | 77 | 104 | 0.0 | 2.0 | 0.00 | 0.00 | 0.00 | 63 | 944.6 |
| 20260906055232 | 78 | 104 | 0.0 | 2.0 | 0.00 | 0.00 | 0.00 | 62 | 944.7 |
| 20260906055132 | 78 | 104 | 1.0 | 3.0 | 0.00 | 0.00 | 0.00 | 62 | 944.6 |
| 20260906055030 | 78 | 104 | 1.0 | 3.0 | 0.00 | 0.00 | 0.00 | 62 | 944.6 |
| 20260906054930 | 78 | 104 | 1.0 | 3.0 | 0.00 | 0.00 | 0.00 | 61 | 944.6 |
| 20260906054828 | 78 | 104 | 1.0 | 3.0 | 0.00 | 0.00 | 0.00 | 61 | 944.6 |
| 20260906054726 | 78 | 104 | 1.0 | 3.0 | 0.00 | 0.00 | 0.00 | 61 | 944.6 |
| 20260906054524 | 78 | 104 | 2.0 | 3.0 | 0.00 | 0.00 | 0.00 | 61 | 944.6 |
| 20260906054424 | 78 | 104 | 2.0 | 3.0 | 0.00 | 0.00 | 0.00 | 60 | 944.6 |
| 20260906054322 | 78 | 115 | 2.0 | 3.0 | 0.00 | 0.00 | 0.00 | 60 | 944.6 |
| 20260906054220 | 78 | 104 | 2.0 | 3.0 | 0.00 | 0.00 | 0.00 | 60 | 944.6 |
| 20260906054116 | 78 | 121 | 2.0 | 3.0 | 0.00 | 0.00 | 0.00 | 60 | 944.5 |
| 20260906054014 | 78 | 106 | 2.0 | 3.0 | 0.00 | 0.00 | 0.00 | 62 | 944.5 |
| 20260906053914 | 79 | 115 | 2.0 | 3.0 | 0.00 | 0.00 | 0.00 | 62 | 944.5 |
| 20260906053814 | 79 | 113 | 2.0 | 4.0 | 0.00 | 0.00 | 0.00 | 62 | 944.5 |
| 20260906053714 | 79 | 112 | 2.0 | 4.0 | 0.00 | 0.00 | 0.00 | 62 | 944.5 |
| 20260906053614 | 79 | 111 | 2.0 | 4.0 | 0.00 | 0.00 | 0.00 | 60 | 944.5 |
| 20260906053512 | 79 | 117 | 2.0 | 4.0 | 0.00 | 0.00 | 0.00 | 61 | 944.5 |
| 20260906053412 | 79 | 106 | 2.0 | 4.0 | 0.00 | 0.00 | 0.00 | 60 | 944.5 |
| 20260906053312 | 79 | 94 | 3.0 | 4.0 | 0.00 | 0.00 | 0.00 | 60 | 944.4 |
| 20260906053212 | 79 | 98 | 3.0 | 4.0 | 0.00 | 0.00 | 0.00 | 59 | 944.5 |
| 20260906053058 | 79 | 103 | 3.0 | 4.0 | 0.00 | 0.00 | 0.00 | 58 | 944.5 |
| 20260906052958 | 79 | 112 | 3.0 | 4.0 | 0.00 | 0.00 | 0.00 | 58 | 944.4 |
| 20260906052858 | 79 | 113 | 3.0 | 4.0 | 0.00 | 0.00 | 0.00 | 58 | 944.4 |
| 20260906052759 | 79 | 115 | 3.0 | 4.0 | 0.00 | 0.00 | 0.00 | 58 | 944.4 |
| 20260906052658 | 79 | 103 | 3.0 | 4.0 | 0.00 | 0.00 | 0.00 | 58 | 944.4 |
| 20260906052558 | 79 | 109 | 3.0 | 4.0 | 0.00 | 0.00 | 0.00 | 58 | 944.4 |
| 20260906052458 | 79 | 100 | 3.0 | 4.0 | 0.00 | 0.00 | 0.00 | 58 | 944.4 |
| 20260906052358 | 79 | 109 | 3.0 | 4.0 | 0.00 | 0.00 | 0.00 | 58 | 944.4 |
| 20260906052258 | 79 | 108 | 3.0 | 4.0 | 0.00 | 0.00 | 0.00 | 58 | 944.4 |
| 20260906052156 | 79 | 114 | 3.0 | 4.0 | 0.00 | 0.00 | 0.00 | 58 | 944.4 |
| 20260906052056 | 79 | 119 | 3.0 | 4.0 | 0.00 | 0.00 | 0.00 | 58 | 944.4 |
| 20260906051956 | 79 | 103 | 3.0 | 4.0 | 0.00 | 0.00 | 0.00 | 58 | 944.4 |
| 20260906051856 | 79 | 107 | 3.0 | 4.0 | 0.00 | 0.00 | 0.00 | 58 | 944.4 |
| 20260906051756 | 79 | 83 | 3.0 | 4.0 | 0.00 | 0.00 | 0.00 | 58 | 944.4 |
| 20260906051714 | 79 | 98 | 3.0 | 4.0 | 0.00 | 0.00 | 0.00 | 59 | 944.4 |
| 20260906051555 | 79 | 112 | 3.0 | 4.0 | 0.00 | 0.00 | 0.00 | 59 | 944.4 |
| 20260906051455 | 79 | 118 | 3.0 | 4.0 | 0.00 | 0.00 | 0.00 | 59 | 944.4 |
| 20260906051355 | 79 | 116 | 3.0 | 4.0 | 0.00 | 0.00 | 0.00 | 59 | 944.4 |
| 20260906051255 | 79 | 111 | 3.0 | 4.0 | 0.00 | 0.00 | 0.00 | 59 | 944.4 |
| 20260906051154 | 79 | 123 | 3.0 | 4.0 | 0.00 | 0.00 | 0.00 | 59 | 944.4 |
| 20260906051054 | 79 | 107 | 3.0 | 4.0 | 0.00 | 0.00 | 0.00 | 59 | 944.4 |
| 20260906050954 | 79 | 109 | 3.0 | 4.0 | 0.00 | 0.00 | 0.00 | 60 | 944.4 |
| 20260906050854 | 79 | 109 | 3.0 | 4.0 | 0.00 | 0.00 | 0.00 | 59 | 944.4 |
| 20260906050754 | 79 | 127 | 3.0 | 4.0 | 0.00 | 0.00 | 0.00 | 59 | 944.4 |
| 20260906050654 | 78 | 94 | 3.0 | 4.0 | 0.00 | 0.00 | 0.00 | 60 | 944.4 |
| 20260906050554 | 78 | 113 | 3.0 | 4.0 | 0.00 | 0.00 | 0.00 | 60 | 944.4 |
| 20260906050454 | 78 | 118 | 3.0 | 4.0 | 0.00 | 0.00 | 0.00 | 60 | 944.4 |
| 20260906050354 | 78 | 121 | 3.0 | 4.0 | 0.00 | 0.00 | 0.00 | 60 | 944.4 |
| 20260906050254 | 78 | 118 | 3.0 | 4.0 | 0.00 | 0.00 | 0.00 | 61 | 944.4 |
| 20260906050152 | 78 | 116 | 3.0 | 4.0 | 0.00 | 0.00 | 0.00 | 61 | 944.4 |
| 20260906050052 | 79 | 127 | 2.0 | 4.0 | 0.00 | 0.00 | 0.00 | 62 | 944.3 |
| 20260906045951 | 79 | 124 | 2.0 | 4.0 | 0.00 | 0.00 | 0.00 | 65 | 944.3 |
| 20260906045851 | 79 | 120 | 2.0 | 4.0 | 0.00 | 0.00 | 0.00 | 65 | 944.3 |
| 20260906045751 | 79 | 127 | 2.0 | 4.0 | 0.00 | 0.00 | 0.00 | 67 | 944.4 |
| 20260906045714 | 79 | 126 | 2.0 | 3.0 | 0.00 | 0.00 | 0.00 | 64 | 944.4 |
| 20260906045549 | 79 | 124 | 2.0 | 3.0 | 0.00 | 0.00 | 0.00 | 60 | 944.3 |
| 20260906045449 | 79 | 130 | 2.0 | 3.0 | 0.00 | 0.00 | 0.00 | 60 | 944.4 |
| 20260906045349 | 79 | 126 | 2.0 | 3.0 | 0.00 | 0.00 | 0.00 | 60 | 944.4 |
| 20260906045249 | 79 | 128 | 2.0 | 3.0 | 0.00 | 0.00 | 0.00 | 60 | 944.4 |
| 20260906045214 | 79 | 132 | 2.0 | 3.0 | 0.00 | 0.00 | 0.00 | 60 | 944.4 |
| 20260906045049 | 79 | 130 | 2.0 | 3.0 | 0.00 | 0.00 | 0.00 | 62 | 944.5 |
| 20260906044945 | 79 | 132 | 2.0 | 3.0 | 0.00 | 0.00 | 0.00 | 62 | 944.4 |
| 20260906044845 | 79 | 133 | 2.0 | 3.0 | 0.00 | 0.00 | 0.00 | 63 | 944.4 |
| 20260906044745 | 80 | 130 | 2.0 | 3.0 | 0.00 | 0.00 | 0.00 | 65 | 944.4 |
| 20260906044645 | 80 | 134 | 2.0 | 3.0 | 0.00 | 0.00 | 0.00 | 63 | 944.4 |
| 20260906044545 | 80 | 134 | 2.0 | 3.0 | 0.00 | 0.00 | 0.00 | 62 | 944.4 |
| 20260906044445 | 80 | 134 | 2.0 | 3.0 | 0.00 | 0.00 | 0.00 | 60 | 944.5 |
| 20260906044345 | 80 | 134 | 2.0 | 3.0 | 0.00 | 0.00 | 0.00 | 59 | 944.5 |
| 20260906044245 | 80 | 134 | 2.0 | 3.0 | 0.00 | 0.00 | 0.00 | 60 | 944.4 |
| 20260906044145 | 80 | 134 | 2.0 | 4.0 | 0.00 | 0.00 | 0.00 | 60 | 944.4 |
| 20260906044045 | 80 | 129 | 2.0 | 4.0 | 0.00 | 0.00 | 0.00 | 58 | 944.4 |
| 20260906043945 | 80 | 141 | 2.0 | 4.0 | 0.00 | 0.00 | 0.00 | 57 | 944.5 |
| 20260906043845 | 80 | 140 | 2.0 | 4.0 | 0.00 | 0.00 | 0.00 | 57 | 944.4 |
| 20260906043745 | 80 | 142 | 2.0 | 4.0 | 0.00 | 0.00 | 0.00 | 56 | 944.4 |
| 20260906043646 | 80 | 128 | 2.0 | 4.0 | 0.00 | 0.00 | 0.00 | 56 | 944.5 |
| 20260906043545 | 80 | 134 | 2.0 | 4.0 | 0.00 | 0.00 | 0.00 | 56 | 944.4 |
| 20260906043445 | 80 | 133 | 2.0 | 4.0 | 0.00 | 0.00 | 0.00 | 56 | 944.4 |
| 20260906043345 | 80 | 132 | 3.0 | 4.0 | 0.00 | 0.00 | 0.00 | 57 | 944.4 |
| 20260906043245 | 80 | 126 | 3.0 | 4.0 | 0.00 | 0.00 | 0.00 | 57 | 944.4 |
| 20260906043145 | 80 | 129 | 2.0 | 4.0 | 0.00 | 0.00 | 0.00 | 57 | 944.5 |
| 20260906043041 | 80 | 123 | 2.0 | 4.0 | 0.00 | 0.00 | 0.00 | 56 | 944.5 |
| 20260906042941 | 80 | 126 | 2.0 | 4.0 | 0.00 | 0.00 | 0.00 | 57 | 944.5 |
| 20260906042841 | 80 | 122 | 2.0 | 4.0 | 0.00 | 0.00 | 0.00 | 58 | 944.5 |
| 20260906042741 | 80 | 132 | 2.0 | 4.0 | 0.00 | 0.00 | 0.00 | 57 | 944.5 |
| 20260906042641 | 80 | 128 | 2.0 | 4.0 | 0.00 | 0.00 | 0.00 | 57 | 944.4 |
| 20260906042541 | 81 | 129 | 2.0 | 4.0 | 0.00 | 0.00 | 0.00 | 56 | 944.4 |
| 20260906042441 | 81 | 134 | 2.0 | 4.0 | 0.00 | 0.00 | 0.00 | 56 | 944.5 |
| 20260906042341 | 81 | 136 | 2.0 | 4.0 | 0.00 | 0.00 | 0.00 | 56 | 944.4 |
| 20260906042241 | 81 | 129 | 2.0 | 4.0 | 0.00 | 0.00 | 0.00 | 57 | 944.5 |
| 20260906042213 | 81 | 119 | 2.0 | 4.0 | 0.00 | 0.00 | 0.00 | 57 | 944.4 |
| 20260906042041 | 81 | 118 | 2.0 | 4.0 | 0.00 | 0.00 | 0.00 | 61 | 944.4 |
| 20260906041941 | 81 | 120 | 2.0 | 4.0 | 0.00 | 0.00 | 0.00 | 60 | 944.4 |
| 20260906041841 | 81 | 114 | 2.0 | 4.0 | 0.00 | 0.00 | 0.00 | 60 | 944.4 |
| 20260906041741 | 81 | 111 | 2.0 | 4.0 | 0.00 | 0.00 | 0.00 | 58 | 944.4 |
| 20260906041641 | 82 | 109 | 2.0 | 4.0 | 0.00 | 0.00 | 0.00 | 56 | 944.4 |
| 20260906041541 | 82 | 112 | 2.0 | 4.0 | 0.00 | 0.00 | 0.00 | 56 | 944.4 |
| 20260906041441 | 82 | 101 | 2.0 | 4.0 | 0.00 | 0.00 | 0.00 | 56 | 944.4 |
| 20260906041341 | 82 | 126 | 2.0 | 4.0 | 0.00 | 0.00 | 0.00 | 56 | 944.4 |
| 20260906041241 | 82 | 84 | 2.0 | 4.0 | 0.00 | 0.00 | 0.00 | 56 | 944.4 |
| 20260906041137 | 82 | 103 | 2.0 | 4.0 | 0.00 | 0.00 | 0.00 | 56 | 944.4 |
| 20260906041037 | 82 | 104 | 2.0 | 4.0 | 0.00 | 0.00 | 0.00 | 57 | 944.4 |
| 20260906040937 | 82 | 99 | 2.0 | 4.0 | 0.00 | 0.00 | 0.00 | 59 | 944.4 |
| 20260906040837 | 82 | 109 | 2.0 | 4.0 | 0.00 | 0.00 | 0.00 | 56 | 944.4 |
| 20260906040737 | 82 | 101 | 2.0 | 4.0 | 0.00 | 0.00 | 0.00 | 57 | 944.4 |
| 20260906040637 | 82 | 103 | 3.0 | 4.0 | 0.00 | 0.00 | 0.00 | 56 | 944.3 |
| 20260906040536 | 82 | 78 | 3.0 | 6.0 | 0.00 | 0.00 | 0.00 | 55 | 944.3 |
| 20260906040437 | 83 | 87 | 3.0 | 6.0 | 0.00 | 0.00 | 0.00 | 54 | 944.4 |
| 20260906040337 | 83 | 109 | 3.0 | 6.0 | 0.00 | 0.00 | 0.00 | 54 | 944.4 |
| 20260906040237 | 83 | 105 | 3.0 | 6.0 | 0.00 | 0.00 | 0.00 | 53 | 944.4 |
| 20260906040213 | 83 | 113 | 3.0 | 6.0 | 0.00 | 0.00 | 0.00 | 53 | 944.4 |
| 20260906040037 | 83 | 112 | 3.0 | 6.0 | 0.00 | 0.00 | 0.00 | 52 | 944.4 |
| 20260906035937 | 83 | 107 | 3.0 | 6.0 | 0.00 | 0.00 | 0.00 | 52 | 944.4 |
| 20260906035837 | 83 | 111 | 3.0 | 6.0 | 0.00 | 0.00 | 0.00 | 53 | 944.4 |
| 20260906035737 | 83 | 108 | 3.0 | 6.0 | 0.00 | 0.00 | 0.00 | 52 | 944.4 |
| 20260906035637 | 83 | 105 | 3.0 | 6.0 | 0.00 | 0.00 | 0.00 | 52 | 944.3 |
| 20260906035537 | 83 | 105 | 3.0 | 6.0 | 0.00 | 0.00 | 0.00 | 53 | 944.3 |
| 20260906035437 | 83 | 105 | 3.0 | 6.0 | 0.00 | 0.00 | 0.00 | 52 | 944.4 |
| 20260906035337 | 83 | 97 | 3.0 | 6.0 | 0.00 | 0.00 | 0.00 | 52 | 944.3 |
| 20260906035233 | 83 | 104 | 3.0 | 6.0 | 0.00 | 0.00 | 0.00 | 52 | 944.3 |
| 20260906035133 | 83 | 111 | 3.0 | 6.0 | 0.00 | 0.00 | 0.00 | 52 | 944.3 |
| 20260906035033 | 83 | 124 | 3.0 | 6.0 | 0.00 | 0.00 | 0.00 | 52 | 944.3 |
| 20260906034933 | 83 | 91 | 3.0 | 6.0 | 0.00 | 0.00 | 0.00 | 52 | 944.3 |
| 20260906034833 | 83 | 88 | 3.0 | 6.0 | 0.00 | 0.00 | 0.00 | 52 | 944.3 |
| 20260906034733 | 83 | 103 | 3.0 | 6.0 | 0.00 | 0.00 | 0.00 | 52 | 944.2 |
| 20260906034633 | 83 | 101 | 3.0 | 6.0 | 0.00 | 0.00 | 0.00 | 52 | 944.2 |
| 20260906034533 | 83 | 106 | 3.0 | 4.0 | 0.00 | 0.00 | 0.00 | 51 | 944.2 |
| 20260906034433 | 83 | 90 | 3.0 | 4.0 | 0.00 | 0.00 | 0.00 | 51 | 944.2 |
| 20260906034333 | 83 | 104 | 3.0 | 4.0 | 0.00 | 0.00 | 0.00 | 51 | 944.2 |
| 20260906034232 | 83 | 82 | 3.0 | 4.0 | 0.00 | 0.00 | 0.00 | 51 | 944.2 |
| 20260906034132 | 83 | 111 | 3.0 | 4.0 | 0.00 | 0.00 | 0.00 | 51 | 944.2 |
| 20260906034033 | 83 | 111 | 3.0 | 4.0 | 0.00 | 0.00 | 0.00 | 51 | 944.2 |
| 20260906033933 | 83 | 90 | 3.0 | 4.0 | 0.00 | 0.00 | 0.00 | 52 | 944.2 |
| 20260906033833 | 83 | 99 | 3.0 | 4.0 | 0.00 | 0.00 | 0.00 | 51 | 944.2 |
| 20260906033733 | 83 | 104 | 3.0 | 4.0 | 0.00 | 0.00 | 0.00 | 51 | 944.2 |
| 20260906033633 | 83 | 108 | 3.0 | 4.0 | 0.00 | 0.00 | 0.00 | 51 | 944.2 |
| 20260906033533 | 83 | 102 | 3.0 | 4.0 | 0.00 | 0.00 | 0.00 | 51 | 944.2 |
| 20260906033433 | 83 | 97 | 3.0 | 4.0 | 0.00 | 0.00 | 0.00 | 51 | 944.2 |
| 20260906033327 | 83 | 101 | 3.0 | 4.0 | 0.00 | 0.00 | 0.00 | 51 | 944.2 |
| 20260906033227 | 83 | 113 | 3.0 | 5.0 | 0.00 | 0.00 | 0.00 | 53 | 944.1 |
| 20260906033127 | 83 | 102 | 3.0 | 6.0 | 0.00 | 0.00 | 0.00 | 53 | 944.1 |
| 20260906033027 | 83 | 113 | 3.0 | 6.0 | 0.00 | 0.00 | 0.00 | 52 | 944.1 |
| 20260906032926 | 83 | 111 | 3.0 | 6.0 | 0.00 | 0.00 | 0.00 | 52 | 944.1 |
| 20260906032823 | 83 | 113 | 3.0 | 6.0 | 0.00 | 0.00 | 0.00 | 51 | 944.1 |
| 20260906032722 | 84 | 107 | 3.0 | 6.0 | 0.00 | 0.00 | 0.00 | 51 | 944.1 |
| 20260906032620 | 84 | 126 | 3.0 | 6.0 | 0.00 | 0.00 | 0.00 | 51 | 944.0 |
| 20260906032521 | 84 | 123 | 3.0 | 6.0 | 0.00 | 0.00 | 0.00 | 50 | 944.0 |
| 20260906032421 | 84 | 111 | 3.0 | 6.0 | 0.00 | 0.00 | 0.00 | 50 | 944.0 |
| 20260906032315 | 84 | 115 | 3.0 | 6.0 | 0.00 | 0.00 | 0.00 | 52 | 944.0 |
| 20260906032215 | 84 | 109 | 3.0 | 6.0 | 0.00 | 0.00 | 0.00 | 51 | 944.0 |
| 20260906032200 | 84 | 128 | 3.0 | 6.0 | 0.00 | 0.00 | 0.00 | 50 | 943.9 |
| 20260906032015 | 84 | 112 | 3.0 | 6.0 | 0.00 | 0.00 | 0.00 | 51 | 943.9 |
| 20260906031914 | 84 | 110 | 3.0 | 6.0 | 0.00 | 0.00 | 0.00 | 51 | 943.9 |
| 20260906031809 | 84 | 124 | 3.0 | 6.0 | 0.00 | 0.00 | 0.00 | 50 | 943.9 |
| 20260906031709 | 84 | 119 | 3.0 | 6.0 | 0.00 | 0.00 | 0.00 | 50 | 943.8 |
| 20260906031609 | 84 | 103 | 3.0 | 4.0 | 0.00 | 0.00 | 0.00 | 49 | 943.8 |
| 20260906031509 | 84 | 111 | 3.0 | 4.0 | 0.00 | 0.00 | 0.00 | 50 | 943.8 |
| 20260906031408 | 85 | 124 | 3.0 | 6.0 | 0.00 | 0.00 | 0.00 | 49 | 943.8 |
| 20260906031304 | 85 | 129 | 3.0 | 6.0 | 0.00 | 0.00 | 0.00 | 50 | 943.8 |
| 20260906031203 | 85 | 111 | 3.0 | 6.0 | 0.00 | 0.00 | 0.00 | 49 | 943.8 |
| 20260906031103 | 85 | 109 | 3.0 | 6.0 | 0.00 | 0.00 | 0.00 | 50 | 943.8 |
| 20260906031003 | 85 | 111 | 3.0 | 6.0 | 0.00 | 0.00 | 0.00 | 49 | 943.8 |
| 20260906030903 | 85 | 116 | 3.0 | 6.0 | 0.00 | 0.00 | 0.00 | 49 | 943.8 |
| 20260906030759 | 85 | 116 | 3.0 | 6.0 | 0.00 | 0.00 | 0.00 | 48 | 943.7 |
| 20260906030659 | 85 | 111 | 3.0 | 6.0 | 0.00 | 0.00 | 0.00 | 48 | 943.7 |
| 20260906030642 | 85 | 91 | 3.0 | 6.0 | 0.00 | 0.00 | 0.00 | 48 | 943.7 |
| 20260906030458 | 85 | 105 | 3.0 | 7.0 | 0.00 | 0.00 | 0.00 | 49 | 943.7 |
| 20260906030356 | 85 | 115 | 3.0 | 7.0 | 0.00 | 0.00 | 0.00 | 48 | 943.7 |
| 20260906030253 | 85 | 117 | 3.0 | 7.0 | 0.00 | 0.00 | 0.00 | 48 | 943.6 |
| 20260906030151 | 85 | 109 | 3.0 | 7.0 | 0.00 | 0.00 | 0.00 | 48 | 943.6 |
| 20260906030051 | 85 | 95 | 3.0 | 7.0 | 0.00 | 0.00 | 0.00 | 48 | 943.6 |
| 20260906025951 | 85 | 102 | 3.0 | 7.0 | 0.00 | 0.00 | 0.00 | 47 | 943.6 |
| 20260906025850 | 85 | 99 | 3.0 | 7.0 | 0.00 | 0.00 | 0.00 | 47 | 943.6 |
| 20260906025745 | 86 | 98 | 3.0 | 7.0 | 0.00 | 0.00 | 0.00 | 47 | 943.6 |
| 20260906025645 | 86 | 94 | 3.0 | 7.0 | 0.00 | 0.00 | 0.00 | 47 | 943.5 |
| 20260906025545 | 86 | 104 | 3.0 | 7.0 | 0.00 | 0.00 | 0.00 | 47 | 943.5 |
| 20260906025443 | 86 | 98 | 3.0 | 7.0 | 0.00 | 0.00 | 0.00 | 47 | 943.5 |
| 20260906025342 | 86 | 116 | 3.0 | 7.0 | 0.00 | 0.00 | 0.00 | 46 | 943.5 |
| 20260906025237 | 86 | 91 | 3.0 | 7.0 | 0.00 | 0.00 | 0.00 | 47 | 943.5 |
| 20260906025137 | 86 | 83 | 3.0 | 7.0 | 0.00 | 0.00 | 0.00 | 47 | 943.5 |
| 20260906025123 | 86 | 96 | 4.0 | 7.0 | 0.00 | 0.00 | 0.00 | 46 | 943.5 |
| 20260906024937 | 86 | 97 | 4.0 | 7.0 | 0.00 | 0.00 | 0.00 | 47 | 943.5 |
| 20260906024836 | 86 | 111 | 4.0 | 8.0 | 0.00 | 0.00 | 0.00 | 46 | 943.5 |
| 20260906024731 | 86 | 99 | 4.0 | 8.0 | 0.00 | 0.00 | 0.00 | 46 | 943.5 |
| 20260906024631 | 86 | 116 | 4.0 | 8.0 | 0.00 | 0.00 | 0.00 | 46 | 943.4 |
| 20260906024531 | 86 | 92 | 4.0 | 8.0 | 0.00 | 0.00 | 0.00 | 46 | 943.4 |
| 20260906024431 | 86 | 84 | 4.0 | 8.0 | 0.00 | 0.00 | 0.00 | 46 | 943.4 |
| 20260906024331 | 87 | 90 | 4.0 | 8.0 | 0.00 | 0.00 | 0.00 | 46 | 943.4 |
| 20260906024227 | 87 | 111 | 4.0 | 8.0 | 0.00 | 0.00 | 0.00 | 46 | 943.4 |
| 20260906024124 | 87 | 92 | 4.0 | 8.0 | 0.00 | 0.00 | 0.00 | 46 | 943.4 |
| 20260906024024 | 87 | 71 | 4.0 | 8.0 | 0.00 | 0.00 | 0.00 | 46 | 943.4 |
| 20260906023925 | 87 | 93 | 4.0 | 8.0 | 0.00 | 0.00 | 0.00 | 46 | 943.4 |
| 20260906023825 | 87 | 98 | 4.0 | 8.0 | 0.00 | 0.00 | 0.00 | 46 | 943.3 |
| 20260906023719 | 87 | 103 | 4.0 | 8.0 | 0.00 | 0.00 | 0.00 | 46 | 943.3 |
| 20260906023619 | 87 | 86 | 4.0 | 8.0 | 0.00 | 0.00 | 0.00 | 46 | 943.2 |
| 20260906023519 | 87 | 104 | 4.0 | 8.0 | 0.00 | 0.00 | 0.00 | 46 | 943.2 |
| 20260906023418 | 87 | 101 | 4.0 | 7.0 | 0.00 | 0.00 | 0.00 | 46 | 943.2 |
| 20260906023318 | 87 | 116 | 4.0 | 7.0 | 0.00 | 0.00 | 0.00 | 46 | 943.3 |
| 20260906023213 | 87 | 90 | 4.0 | 7.0 | 0.00 | 0.00 | 0.00 | 45 | 943.2 |
| 20260906023113 | 87 | 90 | 4.0 | 7.0 | 0.00 | 0.00 | 0.00 | 45 | 943.2 |
| 20260906023058 | 87 | 95 | 4.0 | 6.0 | 0.00 | 0.00 | 0.00 | 46 | 943.2 |
| 20260906022913 | 87 | 110 | 4.0 | 7.0 | 0.00 | 0.00 | 0.00 | 45 | 943.2 |
| 20260906022812 | 87 | 92 | 4.0 | 7.0 | 0.00 | 0.00 | 0.00 | 45 | 943.2 |
| 20260906022707 | 88 | 98 | 4.0 | 7.0 | 0.00 | 0.00 | 0.00 | 45 | 943.1 |
| 20260906022607 | 88 | 78 | 4.0 | 7.0 | 0.00 | 0.00 | 0.00 | 44 | 943.1 |
| 20260906022507 | 88 | 74 | 4.0 | 8.0 | 0.00 | 0.00 | 0.00 | 45 | 943.1 |
| 20260906022407 | 88 | 90 | 4.0 | 8.0 | 0.00 | 0.00 | 0.00 | 45 | 943.2 |
| 20260906022307 | 88 | 98 | 5.0 | 8.0 | 0.00 | 0.00 | 0.00 | 44 | 943.1 |
| 20260906022200 | 88 | 100 | 5.0 | 8.0 | 0.00 | 0.00 | 0.00 | 44 | 943.1 |
| 20260906022101 | 88 | 98 | 5.0 | 8.0 | 0.00 | 0.00 | 0.00 | 44 | 943.0 |
| 20260906022001 | 88 | 89 | 5.0 | 8.0 | 0.00 | 0.00 | 0.00 | 44 | 943.0 |
| 20260906021901 | 88 | 103 | 5.0 | 8.0 | 0.00 | 0.00 | 0.00 | 44 | 943.0 |
| 20260906021801 | 88 | 113 | 5.0 | 9.0 | 0.00 | 0.00 | 0.00 | 44 | 943.0 |
| 20260906021658 | 89 | 115 | 5.0 | 9.0 | 0.00 | 0.00 | 0.00 | 44 | 943.0 |
| 20260906021554 | 89 | 81 | 5.0 | 9.0 | 0.00 | 0.00 | 0.00 | 44 | 943.0 |
| 20260906021540 | 89 | 98 | 5.0 | 9.0 | 0.00 | 0.00 | 0.00 | 44 | 943.0 |
| 20260906021355 | 89 | 119 | 5.0 | 9.0 | 0.00 | 0.00 | 0.00 | 44 | 942.9 |
| 20260906021254 | 89 | 83 | 5.0 | 9.0 | 0.00 | 0.00 | 0.00 | 44 | 942.9 |
| 20260906021151 | 89 | 94 | 5.0 | 9.0 | 0.00 | 0.00 | 0.00 | 43 | 942.9 |
| 20260906021051 | 89 | 110 | 5.0 | 9.0 | 0.00 | 0.00 | 0.00 | 43 | 942.9 |
| 20260906020951 | 89 | 131 | 5.0 | 9.0 | 0.00 | 0.00 | 0.00 | 43 | 942.9 |
| 20260906020851 | 89 | 84 | 5.0 | 9.0 | 0.00 | 0.00 | 0.00 | 43 | 942.9 |
| 20260906020748 | 89 | 113 | 5.0 | 9.0 | 0.00 | 0.00 | 0.00 | 43 | 942.9 |
| 20260906020643 | 89 | 116 | 5.0 | 9.0 | 0.00 | 0.00 | 0.00 | 44 | 942.9 |
| 20260906020543 | 89 | 80 | 5.0 | 8.0 | 0.00 | 0.00 | 0.00 | 43 | 942.8 |
| 20260906020529 | 89 | 126 | 5.0 | 8.0 | 0.00 | 0.00 | 0.00 | 43 | 942.9 |
| 20260906020343 | 89 | 110 | 5.0 | 8.0 | 0.00 | 0.00 | 0.00 | 43 | 942.9 |
| 20260906020243 | 89 | 107 | 6.0 | 9.0 | 0.00 | 0.00 | 0.00 | 43 | 942.9 |
| 20260906020136 | 89 | 95 | 6.0 | 9.0 | 0.00 | 0.00 | 0.00 | 42 | 942.9 |
| 20260906020036 | 89 | 111 | 6.0 | 9.0 | 0.00 | 0.00 | 0.00 | 43 | 942.8 |
| 20260906015936 | 89 | 101 | 6.0 | 9.0 | 0.00 | 0.00 | 0.00 | 42 | 942.8 |
| 20260906015837 | 90 | 114 | 6.0 | 9.0 | 0.00 | 0.00 | 0.00 | 43 | 942.8 |
| 20260906015737 | 90 | 119 | 6.0 | 9.0 | 0.00 | 0.00 | 0.00 | 43 | 942.8 |
| 20260906015631 | 90 | 109 | 6.0 | 9.0 | 0.00 | 0.00 | 0.00 | 42 | 942.8 |
| 20260906015530 | 90 | 102 | 6.0 | 9.0 | 0.00 | 0.00 | 0.00 | 42 | 942.7 |
| 20260906015431 | 90 | 113 | 6.0 | 9.0 | 0.00 | 0.00 | 0.00 | 42 | 942.7 |
| 20260906015330 | 90 | 115 | 6.0 | 9.0 | 0.00 | 0.00 | 0.00 | 42 | 942.7 |
| 20260906015230 | 90 | 116 | 6.0 | 9.0 | 0.00 | 0.00 | 0.00 | 42 | 942.7 |
| 20260906015125 | 90 | 111 | 6.0 | 9.0 | 0.00 | 0.00 | 0.00 | 42 | 942.7 |
| 20260906015025 | 90 | 109 | 6.0 | 9.0 | 0.00 | 0.00 | 0.00 | 42 | 942.7 |
| 20260906014925 | 90 | 101 | 6.0 | 9.0 | 0.00 | 0.00 | 0.00 | 41 | 942.7 |
| 20260906014825 | 90 | 121 | 6.0 | 9.0 | 0.00 | 0.00 | 0.00 | 41 | 942.7 |
| 20260906014724 | 90 | 112 | 6.0 | 10.0 | 0.00 | 0.00 | 0.00 | 41 | 942.7 |
| 20260906014619 | 90 | 110 | 6.0 | 10.0 | 0.00 | 0.00 | 0.00 | 41 | 942.7 |
| 20260906014519 | 90 | 112 | 6.0 | 10.0 | 0.00 | 0.00 | 0.00 | 41 | 942.7 |
| 20260906014505 | 90 | 128 | 6.0 | 10.0 | 0.00 | 0.00 | 0.00 | 41 | 942.7 |
| 20260906014319 | 90 | 113 | 6.0 | 10.0 | 0.00 | 0.00 | 0.00 | 41 | 942.7 |
| 20260906014218 | 90 | 127 | 6.0 | 10.0 | 0.00 | 0.00 | 0.00 | 41 | 942.7 |
| 20260906014112 | 90 | 130 | 6.0 | 10.0 | 0.00 | 0.00 | 0.00 | 41 | 942.6 |
| 20260906014012 | 91 | 105 | 6.0 | 10.0 | 0.00 | 0.00 | 0.00 | 41 | 942.6 |
| 20260906013912 | 91 | 126 | 6.0 | 10.0 | 0.00 | 0.00 | 0.00 | 41 | 942.6 |
| 20260906013813 | 91 | 131 | 6.0 | 10.0 | 0.00 | 0.00 | 0.00 | 40 | 942.5 |
| 20260906013712 | 91 | 133 | 6.0 | 10.0 | 0.00 | 0.00 | 0.00 | 41 | 942.5 |
| 20260906013608 | 91 | 112 | 6.0 | 10.0 | 0.00 | 0.00 | 0.00 | 41 | 942.5 |
| 20260906013508 | 91 | 138 | 6.0 | 11.0 | 0.00 | 0.00 | 0.00 | 40 | 942.5 |
| 20260906013409 | 91 | 88 | 6.0 | 11.0 | 0.00 | 0.00 | 0.00 | 40 | 942.5 |
| 20260906013206 | 91 | 111 | 7.0 | 11.0 | 0.00 | 0.00 | 0.00 | 40 | 942.5 |
| 20260906013102 | 91 | 111 | 7.0 | 11.0 | 0.00 | 0.00 | 0.00 | 40 | 942.4 |
| 20260906013001 | 91 | 122 | 6.0 | 11.0 | 0.00 | 0.00 | 0.00 | 40 | 942.4 |
| 20260906012901 | 91 | 148 | 6.0 | 11.0 | 0.00 | 0.00 | 0.00 | 40 | 942.4 |
| 20260906012800 | 91 | 113 | 6.0 | 11.0 | 0.00 | 0.00 | 0.00 | 40 | 942.4 |
| 20260906012700 | 91 | 104 | 6.0 | 11.0 | 0.00 | 0.00 | 0.00 | 40 | 942.4 |
| 20260906012555 | 91 | 104 | 6.0 | 11.0 | 0.00 | 0.00 | 0.00 | 40 | 942.3 |
| 20260906012455 | 91 | 119 | 6.0 | 11.0 | 0.00 | 0.00 | 0.00 | 40 | 942.3 |
| 20260906012355 | 91 | 105 | 6.0 | 11.0 | 0.00 | 0.00 | 0.00 | 40 | 942.3 |
| 20260906012255 | 91 | 101 | 6.0 | 11.0 | 0.00 | 0.00 | 0.00 | 40 | 942.3 |
| 20260906012154 | 91 | 80 | 6.0 | 11.0 | 0.00 | 0.00 | 0.00 | 40 | 942.2 |
| 20260906012049 | 92 | 103 | 6.0 | 11.0 | 0.00 | 0.00 | 0.00 | 40 | 942.2 |
| 20260906011949 | 92 | 105 | 7.0 | 13.0 | 0.00 | 0.00 | 0.00 | 40 | 942.2 |
| 20260906011849 | 92 | 115 | 7.0 | 13.0 | 0.00 | 0.00 | 0.00 | 40 | 942.2 |
| 20260906011749 | 92 | 92 | 7.0 | 13.0 | 0.00 | 0.00 | 0.00 | 39 | 942.2 |
| 20260906011648 | 92 | 136 | 7.0 | 13.0 | 0.00 | 0.00 | 0.00 | 39 | 942.2 |
| 20260906011543 | 92 | 109 | 7.0 | 13.0 | 0.00 | 0.00 | 0.00 | 39 | 942.2 |
| 20260906011443 | 92 | 110 | 7.0 | 13.0 | 0.00 | 0.00 | 0.00 | 40 | 942.1 |
| 20260906011343 | 92 | 114 | 8.0 | 13.0 | 0.00 | 0.00 | 0.00 | 39 | 942.2 |
| 20260906011243 | 92 | 97 | 8.0 | 14.0 | 0.00 | 0.00 | 0.00 | 39 | 942.2 |
| 20260906011143 | 92 | 117 | 8.0 | 14.0 | 0.00 | 0.00 | 0.00 | 40 | 942.2 |
| 20260906011039 | 92 | 138 | 7.0 | 14.0 | 0.00 | 0.00 | 0.00 | 39 | 942.1 |
| 20260906010939 | 92 | 114 | 7.0 | 14.0 | 0.00 | 0.00 | 0.00 | 39 | 942.1 |
| 20260906010838 | 92 | 119 | 8.0 | 14.0 | 0.00 | 0.00 | 0.00 | 39 | 942.1 |
| 20260906010739 | 92 | 78 | 8.0 | 14.0 | 0.00 | 0.00 | 0.00 | 39 | 942.1 |
| 20260906010637 | 92 | 145 | 8.0 | 14.0 | 0.00 | 0.00 | 0.00 | 39 | 942.1 |
| 20260906010532 | 92 | 123 | 8.0 | 14.0 | 0.00 | 0.00 | 0.00 | 39 | 942.1 |
| 20260906010430 | 92 | 105 | 7.0 | 14.0 | 0.00 | 0.00 | 0.00 | 39 | 942.1 |
| 20260906010330 | 92 | 111 | 7.0 | 14.0 | 0.00 | 0.00 | 0.00 | 39 | 942.1 |
| 20260906010230 | 92 | 109 | 7.0 | 12.0 | 0.00 | 0.00 | 0.00 | 39 | 942.1 |
| 20260906010130 | 93 | 128 | 7.0 | 14.0 | 0.00 | 0.00 | 0.00 | 39 | 942.1 |
| 20260906010025 | 93 | 103 | 8.0 | 14.0 | 0.00 | 0.00 | 0.00 | 39 | 942.0 |
| 20260906005925 | 93 | 102 | 8.0 | 14.0 | 0.00 | 0.00 | 0.00 | 39 | 942.0 |
| 20260906005825 | 93 | 121 | 8.0 | 14.0 | 0.00 | 0.00 | 0.00 | 39 | 941.9 |
| 20260906005725 | 93 | 107 | 8.0 | 14.0 | 0.00 | 0.00 | 0.00 | 39 | 942.0 |
| 20260906005624 | 93 | 113 | 8.0 | 14.0 | 0.00 | 0.00 | 0.00 | 38 | 942.0 |
| 20260906005521 | 93 | 153 | 8.0 | 14.0 | 0.00 | 0.00 | 0.00 | 38 | 942.0 |
| 20260906005419 | 93 | 103 | 9.0 | 14.0 | 0.00 | 0.00 | 0.00 | 38 | 942.0 |
| 20260906005319 | 93 | 103 | 9.0 | 14.0 | 0.00 | 0.00 | 0.00 | 38 | 942.0 |
| 20260906005219 | 93 | 95 | 9.0 | 14.0 | 0.00 | 0.00 | 0.00 | 38 | 941.9 |
| 20260906005118 | 93 | 92 | 9.0 | 15.0 | 0.00 | 0.00 | 0.00 | 38 | 942.0 |
| 20260906005018 | 93 | 96 | 9.0 | 15.0 | 0.00 | 0.00 | 0.00 | 38 | 941.9 |
| 20260906004915 | 93 | 111 | 9.0 | 15.0 | 0.00 | 0.00 | 0.00 | 38 | 942.0 |
| 20260906004859 | 93 | 136 | 10.0 | 15.0 | 0.00 | 0.00 | 0.00 | 38 | 941.9 |
| 20260906004715 | 94 | 84 | 10.0 | 15.0 | 0.00 | 0.00 | 0.00 | 38 | 942.0 |
| 20260906004612 | 94 | 109 | 10.0 | 18.0 | 0.00 | 0.00 | 0.00 | 38 | 942.0 |
| 20260906004506 | 94 | 138 | 10.0 | 18.0 | 0.00 | 0.00 | 0.00 | 38 | 942.0 |
| 20260906004407 | 94 | 107 | 10.0 | 18.0 | 0.00 | 0.00 | 0.00 | 38 | 941.9 |
| 20260906004307 | 94 | 99 | 10.0 | 18.0 | 0.00 | 0.00 | 0.00 | 38 | 941.9 |
| 20260906004207 | 94 | 127 | 10.0 | 18.0 | 0.00 | 0.00 | 0.00 | 38 | 941.9 |
| 20260906004107 | 94 | 111 | 10.0 | 18.0 | 0.00 | 0.00 | 0.00 | 38 | 941.9 |
| 20260906004000 | 94 | 93 | 10.0 | 18.0 | 0.00 | 0.00 | 0.00 | 37 | 941.9 |
| 20260906003900 | 94 | 112 | 10.0 | 18.0 | 0.00 | 0.00 | 0.00 | 38 | 941.9 |
| 20260906003800 | 94 | 136 | 10.0 | 18.0 | 0.00 | 0.00 | 0.00 | 38 | 941.9 |
| 20260906003700 | 94 | 109 | 10.0 | 18.0 | 0.00 | 0.00 | 0.00 | 38 | 941.9 |
| 20260906003600 | 94 | 110 | 10.0 | 18.0 | 0.00 | 0.00 | 0.00 | 38 | 941.9 |
| 20260906003456 | 94 | 105 | 10.0 | 18.0 | 0.00 | 0.00 | 0.00 | 38 | 941.9 |
| 20260906003356 | 94 | 113 | 9.0 | 18.0 | 0.00 | 0.00 | 0.00 | 38 | 941.9 |
| 20260906003256 | 94 | 102 | 9.0 | 18.0 | 0.00 | 0.00 | 0.00 | 38 | 941.9 |
| 20260906003156 | 94 | 91 | 9.0 | 18.0 | 0.00 | 0.00 | 0.00 | 38 | 941.9 |
| 20260906003054 | 94 | 110 | 9.0 | 18.0 | 0.00 | 0.00 | 0.00 | 38 | 941.9 |
| 20260906002951 | 94 | 120 | 9.0 | 18.0 | 0.00 | 0.00 | 0.00 | 38 | 941.9 |
| 20260906002849 | 94 | 105 | 8.0 | 18.0 | 0.00 | 0.00 | 0.00 | 38 | 942.0 |
| 20260906002749 | 95 | 109 | 8.0 | 14.0 | 0.00 | 0.00 | 0.00 | 38 | 941.9 |
| 20260906002649 | 95 | 118 | 8.0 | 14.0 | 0.00 | 0.00 | 0.00 | 38 | 941.9 |
| 20260906002548 | 95 | 98 | 8.0 | 14.0 | 0.00 | 0.00 | 0.00 | 38 | 941.9 |
| 20260906002445 | 95 | 94 | 8.0 | 14.0 | 0.00 | 0.00 | 0.00 | 39 | 941.9 |
| 20260906002345 | 95 | 101 | 8.0 | 14.0 | 0.00 | 0.00 | 0.00 | 38 | 941.9 |
| 20260906002245 | 95 | 94 | 8.0 | 14.0 | 0.00 | 0.00 | 0.00 | 38 | 941.9 |
| 20260906002144 | 95 | 130 | 8.0 | 14.0 | 0.00 | 0.00 | 0.00 | 38 | 941.9 |
| 20260906002042 | 95 | 103 | 8.0 | 14.0 | 0.00 | 0.00 | 0.00 | 38 | 941.9 |
| 20260906001939 | 95 | 93 | 9.0 | 15.0 | 0.00 | 0.00 | 0.00 | 38 | 941.8 |
| 20260906001837 | 95 | 120 | 9.0 | 15.0 | 0.00 | 0.00 | 0.00 | 38 | 941.8 |
| 20260906001823 | 95 | 141 | 9.0 | 15.0 | 0.00 | 0.00 | 0.00 | 38 | 941.8 |
| 20260906001637 | 95 | 127 | 9.0 | 15.0 | 0.00 | 0.00 | 0.00 | 39 | 941.8 |
| 20260906001540 | 95 | 132 | 9.0 | 15.0 | 0.00 | 0.00 | 0.00 | 38 | 941.8 |
| 20260906001430 | 95 | 121 | 9.0 | 15.0 | 0.00 | 0.00 | 0.00 | 38 | 941.8 |
| 20260906001330 | 95 | 121 | 9.0 | 15.0 | 0.00 | 0.00 | 0.00 | 38 | 941.8 |
| 20260906001316 | 95 | 111 | 9.0 | 15.0 | 0.00 | 0.00 | 0.00 | 38 | 941.8 |
| 20260906001131 | 95 | 113 | 9.0 | 15.0 | 0.00 | 0.00 | 0.00 | 38 | 941.8 |
| 20260906001030 | 96 | 78 | 9.0 | 15.0 | 0.00 | 0.00 | 0.00 | 38 | 941.8 |
| 20260906000925 | 96 | 117 | 9.0 | 14.0 | 0.00 | 0.00 | 0.00 | 39 | 941.8 |
| 20260906000825 | 96 | 93 | 9.0 | 14.0 | 0.00 | 0.00 | 0.00 | 38 | 941.8 |
| 20260906000725 | 96 | 107 | 9.0 | 15.0 | 0.00 | 0.00 | 0.00 | 38 | 941.8 |
| 20260906000625 | 96 | 125 | 9.0 | 15.0 | 0.00 | 0.00 | 0.00 | 38 | 941.8 |
| 20260906000524 | 96 | 112 | 9.0 | 15.0 | 0.00 | 0.00 | 0.00 | 38 | 941.8 |
| 20260906000419 | 96 | 131 | 9.0 | 15.0 | 0.00 | 0.00 | 0.00 | 38 | 941.8 |
| 20260906000319 | 96 | 127 | 9.0 | 15.0 | 0.00 | 0.00 | 0.00 | 38 | 941.8 |
| 20260906000219 | 96 | 102 | 9.0 | 15.0 | 0.00 | 0.00 | 0.00 | 38 | 941.7 |
| 20260906000119 | 96 | 94 | 10.0 | 15.0 | 0.00 | 0.00 | 0.00 | 38 | 941.7 |
| 20260906000018 | 96 | 102 | 10.0 | 15.0 | 0.00 | 0.00 | 0.00 | 37 | 941.8 |
| 20260905235913 | 96 | 144 | 10.0 | 15.0 | 0.00 | 0.00 | 0.00 | 37 | 941.7 |
| 20260905235813 | 96 | 99 | 10.0 | 15.0 | 0.00 | 0.00 | 0.00 | 38 | 941.7 |
| 20260905235713 | 96 | 132 | 9.0 | 15.0 | 0.00 | 0.00 | 0.00 | 38 | 941.7 |
| 20260905235613 | 96 | 111 | 9.0 | 15.0 | 0.00 | 0.00 | 0.00 | 38 | 941.7 |
| 20260905235512 | 96 | 138 | 9.0 | 15.0 | 0.00 | 0.00 | 0.00 | 38 | 941.7 |
| 20260905235407 | 96 | 92 | 9.0 | 15.0 | 0.00 | 0.00 | 0.00 | 37 | 941.7 |
| 20260905235307 | 96 | 97 | 9.0 | 15.0 | 0.00 | 0.00 | 0.00 | 37 | 941.7 |
| 20260905235207 | 96 | 86 | 9.0 | 15.0 | 0.00 | 0.00 | 0.00 | 37 | 941.7 |
| 20260905235107 | 97 | 93 | 9.0 | 15.0 | 0.00 | 0.00 | 0.00 | 38 | 941.7 |
| 20260905235006 | 97 | 125 | 8.0 | 15.0 | 0.00 | 0.00 | 0.00 | 37 | 941.7 |
| 20260905234901 | 97 | 146 | 8.0 | 15.0 | 0.00 | 0.00 | 0.00 | 37 | 941.7 |
| 20260905234801 | 97 | 120 | 9.0 | 15.0 | 0.00 | 0.00 | 0.00 | 37 | 941.7 |
| 20260905234747 | 97 | 103 | 9.0 | 15.0 | 0.00 | 0.00 | 0.00 | 37 | 941.7 |
| 20260905234601 | 97 | 108 | 9.0 | 15.0 | 0.00 | 0.00 | 0.00 | 37 | 941.7 |
| 20260905234500 | 97 | 105 | 9.0 | 15.0 | 0.00 | 0.00 | 0.00 | 39 | 941.7 |
| 20260905234356 | 97 | 105 | 9.0 | 15.0 | 0.00 | 0.00 | 0.00 | 38 | 941.6 |
| 20260905234254 | 97 | 81 | 9.0 | 15.0 | 0.00 | 0.00 | 0.00 | 38 | 941.7 |
| 20260905234154 | 97 | 101 | 9.0 | 15.0 | 0.00 | 0.00 | 0.00 | 37 | 941.6 |
| 20260905234054 | 97 | 106 | 9.0 | 15.0 | 0.00 | 0.00 | 0.00 | 38 | 941.6 |
| 20260905233955 | 97 | 101 | 9.0 | 16.0 | 0.00 | 0.00 | 0.00 | 37 | 941.6 |
| 20260905233849 | 97 | 113 | 10.0 | 16.0 | 0.00 | 0.00 | 0.00 | 37 | 941.6 |
| 20260905233749 | 97 | 96 | 10.0 | 16.0 | 0.00 | 0.00 | 0.00 | 38 | 941.5 |
| 20260905233735 | 97 | 126 | 10.0 | 16.0 | 0.00 | 0.00 | 0.00 | 37 | 941.5 |
| 20260905233549 | 97 | 99 | 10.0 | 16.0 | 0.00 | 0.00 | 0.00 | 38 | 941.5 |
| 20260905233448 | 97 | 96 | 10.0 | 16.0 | 0.00 | 0.00 | 0.00 | 38 | 941.6 |
| 20260905233342 | 97 | 94 | 10.0 | 16.0 | 0.00 | 0.00 | 0.00 | 37 | 941.5 |
| 20260905233242 | 97 | 90 | 10.0 | 16.0 | 0.00 | 0.00 | 0.00 | 37 | 941.5 |
| 20260905233142 | 97 | 114 | 10.0 | 16.0 | 0.00 | 0.00 | 0.00 | 37 | 941.4 |
| 20260905233043 | 97 | 129 | 10.0 | 16.0 | 0.00 | 0.00 | 0.00 | 37 | 941.4 |
| 20260905232942 | 97 | 121 | 10.0 | 16.0 | 0.00 | 0.00 | 0.00 | 37 | 941.4 |
| 20260905232836 | 97 | 107 | 9.0 | 16.0 | 0.00 | 0.00 | 0.00 | 37 | 941.5 |
| 20260905232736 | 97 | 112 | 9.0 | 16.0 | 0.00 | 0.00 | 0.00 | 37 | 941.4 |
| 20260905232636 | 97 | 119 | 9.0 | 16.0 | 0.00 | 0.00 | 0.00 | 37 | 941.4 |
| 20260905232536 | 97 | 147 | 9.0 | 16.0 | 0.00 | 0.00 | 0.00 | 37 | 941.5 |
| 20260905232437 | 98 | 116 | 8.0 | 16.0 | 0.00 | 0.00 | 0.00 | 37 | 941.4 |
| 20260905232332 | 98 | 126 | 8.0 | 16.0 | 0.00 | 0.00 | 0.00 | 37 | 941.4 |
| 20260905232232 | 98 | 118 | 8.0 | 15.0 | 0.00 | 0.00 | 0.00 | 37 | 941.4 |
| 20260905232133 | 98 | 94 | 8.0 | 14.0 | 0.00 | 0.00 | 0.00 | 36 | 941.3 |
| 20260905232032 | 98 | 116 | 7.0 | 14.0 | 0.00 | 0.00 | 0.00 | 37 | 941.4 |
| 20260905231930 | 98 | 123 | 7.0 | 13.0 | 0.00 | 0.00 | 0.00 | 36 | 941.4 |
| 20260905231827 | 98 | 141 | 7.0 | 13.0 | 0.00 | 0.00 | 0.00 | 37 | 941.4 |
| 20260905231725 | 98 | 137 | 8.0 | 13.0 | 0.00 | 0.00 | 0.00 | 36 | 941.3 |
| 20260905231625 | 98 | 121 | 7.0 | 13.0 | 0.00 | 0.00 | 0.00 | 36 | 941.3 |
| 20260905231525 | 98 | 119 | 7.0 | 12.0 | 0.00 | 0.00 | 0.00 | 36 | 941.3 |
| 20260905231424 | 98 | 121 | 7.0 | 12.0 | 0.00 | 0.00 | 0.00 | 36 | 941.3 |
| 20260905231319 | 98 | 137 | 7.0 | 12.0 | 0.00 | 0.00 | 0.00 | 36 | 941.3 |
| 20260905231219 | 98 | 59 | 7.0 | 12.0 | 0.00 | 0.00 | 0.00 | 36 | 941.3 |
| 20260905231119 | 98 | 153 | 7.0 | 12.0 | 0.00 | 0.00 | 0.00 | 36 | 941.3 |
| 20260905231019 | 98 | 105 | 7.0 | 14.0 | 0.00 | 0.00 | 0.00 | 36 | 941.3 |
| 20260905230918 | 98 | 116 | 7.0 | 14.0 | 0.00 | 0.00 | 0.00 | 36 | 941.4 |
| 20260905230813 | 98 | 101 | 7.0 | 14.0 | 0.00 | 0.00 | 0.00 | 36 | 941.4 |
| 20260905230713 | 98 | 162 | 6.0 | 14.0 | 0.00 | 0.00 | 0.00 | 36 | 941.3 |
| 20260905230613 | 98 | 167 | 7.0 | 15.0 | 0.00 | 0.00 | 0.00 | 36 | 941.3 |
| 20260905230513 | 98 | 144 | 7.0 | 15.0 | 0.00 | 0.00 | 0.00 | 37 | 941.3 |
| 20260905230412 | 98 | 108 | 7.0 | 15.0 | 0.00 | 0.00 | 0.00 | 37 | 941.3 |
| 20260905230306 | 98 | 103 | 6.0 | 15.0 | 0.00 | 0.00 | 0.00 | 37 | 941.2 |
| 20260905230206 | 98 | 142 | 6.0 | 15.0 | 0.00 | 0.00 | 0.00 | 38 | 941.2 |
| 20260905230106 | 98 | 101 | 6.0 | 15.0 | 0.00 | 0.00 | 0.00 | 38 | 941.2 |
| 20260905230007 | 98 | 63 | 6.0 | 15.0 | 0.00 | 0.00 | 0.00 | 37 | 941.3 |
| 20260905225907 | 98 | 100 | 7.0 | 15.0 | 0.00 | 0.00 | 0.00 | 36 | 941.3 |
| 20260905225800 | 98 | 89 | 7.0 | 15.0 | 0.00 | 0.00 | 0.00 | 37 | 941.3 |
| 20260905225700 | 98 | 121 | 6.0 | 15.0 | 0.00 | 0.00 | 0.00 | 37 | 941.3 |
| 20260905225600 | 98 | 134 | 6.0 | 15.0 | 0.00 | 0.00 | 0.00 | 38 | 941.3 |
| 20260905225500 | 98 | 129 | 6.0 | 15.0 | 0.00 | 0.00 | 0.00 | 37 | 941.3 |
| 20260905225401 | 98 | 151 | 7.0 | 15.0 | 0.00 | 0.00 | 0.00 | 37 | 941.3 |
| 20260905225254 | 98 | 148 | 7.0 | 15.0 | 0.00 | 0.00 | 0.00 | 36 | 941.3 |
| 20260905225154 | 98 | 132 | 7.0 | 15.0 | 0.00 | 0.00 | 0.00 | 36 | 941.3 |
| 20260905225140 | 98 | 150 | 7.0 | 15.0 | 0.00 | 0.00 | 0.00 | 37 | 941.3 |
| 20260905224954 | 98 | 150 | 6.0 | 15.0 | 0.00 | 0.00 | 0.00 | 37 | 941.2 |
| 20260905224854 | 98 | 134 | 6.0 | 14.0 | 0.00 | 0.00 | 0.00 | 38 | 941.0 |
| 20260905224752 | 98 | 315 | 7.0 | 14.0 | 0.00 | 0.00 | 0.00 | 38 | 941.3 |
| 20260905224651 | 98 | 36 | 7.0 | 14.0 | 0.00 | 0.00 | 0.00 | 38 | 941.3 |
| 20260905224635 | 98 | 76 | 7.0 | 15.0 | 0.00 | 0.00 | 0.00 | 36 | 941.3 |
| 20260905224451 | 98 | 84 | 7.0 | 15.0 | 0.00 | 0.00 | 0.00 | 37 | 941.3 |